Wetterdaten: Montag, 01.03.2010
Datum Zeit Temp. Innen Temp. Aussen UV X Diff Temp. Feuchte Inne Feuchte Auss Sonnenschein Luftdruck Regen ab 0,1 Wind Sonnenschein Windben
01.03.2010 00:00 12,6 C 4,8 C 0,0 UV-I 0,0 C 55 % 90 % 0 % 995,9 hPa 0,0 l/m 16,5 km/h (3 Bft) 0 min 17,8 km/h (3 Bft)
01.03.2010 00:02 12,6 C 4,8 C 0,0 UV-I 0,0 C 56 % 90 % 0 % 995,9 hPa 0,0 l/m 15,7 km/h (3 Bft) 0 min 7,2 km/h (2 Bft)
01.03.2010 00:04 12,4 C 4,8 C 0,0 UV-I 0,0 C 56 % 90 % 0 % 995,9 hPa 0,0 l/m 15,7 km/h (3 Bft) 0 min 7,2 km/h (2 Bft)
01.03.2010 00:06 12,4 C 4,8 C 0,0 UV-I 0,0 C 56 % 90 % 0 % 995,9 hPa 0,0 l/m 12,4 km/h (3 Bft) 0 min 12,0 km/h (2 Bft)
01.03.2010 00:08 12,4 C 4,8 C 0,0 UV-I 0,0 C 56 % 89 % 0 % 995,9 hPa 0,0 l/m 12,8 km/h (3 Bft) 0 min 15,4 km/h (3 Bft)
01.03.2010 00:10 12,6 C 4,8 C 0,0 UV-I 0,0 C 56 % 89 % 0 % 995,9 hPa 0,0 l/m 12,8 km/h (3 Bft) 0 min 14,0 km/h (3 Bft)
01.03.2010 00:12 12,4 C 4,8 C 0,0 UV-I 0,0 C 55 % 89 % 0 % 996,6 hPa 0,0 l/m 11,6 km/h (2 Bft) 0 min 16,4 km/h (3 Bft)
01.03.2010 00:14 12,4 C 4,8 C 0,0 UV-I 0,0 C 56 % 89 % 0 % 996,6 hPa 0,0 l/m 12,4 km/h (3 Bft) 0 min 15,6 km/h (3 Bft)
01.03.2010 00:16 12,4 C 4,8 C 0,0 UV-I 0,0 C 55 % 89 % 0 % 996,6 hPa 0,0 l/m 13,3 km/h (3 Bft) 0 min 12,5 km/h (3 Bft)
01.03.2010 00:20 12,4 C 4,9 C 0,0 UV-I 0,0 C 55 % 89 % 0 % 996,6 hPa 0,0 l/m 13,3 km/h (3 Bft) 0 min 19,0 km/h (3 Bft)
01.03.2010 00:24 12,6 C 4,8 C 0,0 UV-I 0,0 C 55 % 89 % 0 % 996,6 hPa 0,0 l/m 12,8 km/h (3 Bft) 0 min 11,5 km/h (2 Bft)
01.03.2010 00:26 12,4 C 4,8 C 0,0 UV-I 0,0 C 55 % 89 % 0 % 996,6 hPa 0,0 l/m 12,0 km/h (2 Bft) 0 min 7,2 km/h (2 Bft)
01.03.2010 00:28 12,4 C 4,8 C 0,0 UV-I 0,0 C 55 % 89 % 0 % 996,6 hPa 0,0 l/m 12,4 km/h (3 Bft) 0 min 5,1 km/h (1 Bft)
01.03.2010 00:30 12,4 C 4,8 C 0,0 UV-I 0,0 C 55 % 89 % 0 % 996,6 hPa 0,0 l/m 12,8 km/h (3 Bft) 0 min 6,3 km/h (2 Bft)
01.03.2010 00:32 12,4 C 4,8 C 0,0 UV-I 0,0 C 55 % 89 % 0 % 996,7 hPa 0,0 l/m 12,0 km/h (2 Bft) 0 min 21,2 km/h (4 Bft)
01.03.2010 00:34 12,4 C 4,8 C 0,0 UV-I 0,0 C 55 % 89 % 0 % 996,7 hPa 0,0 l/m 12,8 km/h (3 Bft) 0 min 7,9 km/h (2 Bft)
01.03.2010 00:36 12,4 C 4,9 C 0,0 UV-I 0,0 C 55 % 89 % 0 % 996,7 hPa 0,0 l/m 12,8 km/h (3 Bft) 0 min 8,2 km/h (2 Bft)
01.03.2010 00:42 12,4 C 4,9 C 0,0 UV-I 0,0 C 55 % 89 % 0 % 996,7 hPa 0,0 l/m 14,9 km/h (3 Bft) 0 min 18,3 km/h (3 Bft)
01.03.2010 00:44 12,4 C 4,9 C 0,0 UV-I 0,0 C 55 % 89 % 0 % 996,7 hPa 0,0 l/m 14,1 km/h (3 Bft) 0 min 10,6 km/h (2 Bft)
01.03.2010 00:46 12,4 C 4,9 C 0,0 UV-I 0,0 C 55 % 89 % 0 % 996,7 hPa 0,0 l/m 14,5 km/h (3 Bft) 0 min 11,8 km/h (2 Bft)
01.03.2010 00:48 12,4 C 4,9 C 0,0 UV-I 0,0 C 55 % 89 % 0 % 996,7 hPa 0,0 l/m 14,1 km/h (3 Bft) 0 min 7,0 km/h (2 Bft)
01.03.2010 00:50 12,6 C 4,9 C 0,0 UV-I 0,0 C 55 % 89 % 0 % 996,7 hPa 0,0 l/m 13,7 km/h (3 Bft) 0 min 9,9 km/h (2 Bft)
01.03.2010 00:52 12,6 C 4,9 C 0,0 UV-I 0,0 C 55 % 89 % 0 % 997,2 hPa 0,0 l/m 13,7 km/h (3 Bft) 0 min 7,7 km/h (2 Bft)
01.03.2010 00:56 12,4 C 4,9 C 0,0 UV-I 0,0 C 55 % 89 % 0 % 997,2 hPa 0,0 l/m 14,5 km/h (3 Bft) 0 min 18,5 km/h (3 Bft)
01.03.2010 00:58 12,4 C 5,0 C 0,0 UV-I 0,0 C 55 % 89 % 0 % 997,2 hPa 0,0 l/m 14,5 km/h (3 Bft) 0 min 8,4 km/h (2 Bft)
01.03.2010 01:02 12,4 C 5,1 C 0,0 UV-I 0,0 C 55 % 88 % 0 % 997,2 hPa 0,0 l/m 15,7 km/h (3 Bft) 0 min 27,7 km/h (4 Bft)
01.03.2010 01:04 12,4 C 5,0 C 0,0 UV-I 0,0 C 55 % 88 % 0 % 997,2 hPa 0,0 l/m 17,3 km/h (3 Bft) 0 min 19,7 km/h (3 Bft)
01.03.2010 01:06 12,4 C 5,1 C 0,0 UV-I 0,0 C 55 % 88 % 0 % 997,2 hPa 0,0 l/m 17,3 km/h (3 Bft) 0 min 27,4 km/h (4 Bft)
01.03.2010 01:08 12,4 C 5,1 C 0,0 UV-I 0,0 C 55 % 88 % 0 % 997,2 hPa 0,0 l/m 16,5 km/h (3 Bft) 0 min 8,7 km/h (2 Bft)
01.03.2010 01:10 12,4 C 5,1 C 0,0 UV-I 0,0 C 55 % 87 % 0 % 997,2 hPa 0,0 l/m 17,3 km/h (3 Bft) 0 min 15,6 km/h (3 Bft)
01.03.2010 01:12 12,4 C 5,1 C 0,0 UV-I 0,0 C 55 % 87 % 0 % 998,2 hPa 0,0 l/m 17,7 km/h (3 Bft) 0 min 9,4 km/h (2 Bft)
01.03.2010 01:14 12,4 C 5,1 C 0,0 UV-I 0,0 C 55 % 86 % 0 % 998,2 hPa 0,0 l/m 17,7 km/h (3 Bft) 0 min 12,5 km/h (3 Bft)
01.03.2010 01:24 12,4 C 5,1 C 0,0 UV-I 0,0 C 55 % 86 % 0 % 998,2 hPa 0,0 l/m 14,5 km/h (3 Bft) 0 min 21,7 km/h (4 Bft)
01.03.2010 01:26 12,4 C 5,1 C 0,0 UV-I 0,0 C 55 % 86 % 0 % 998,2 hPa 0,0 l/m 14,9 km/h (3 Bft) 0 min 18,5 km/h (3 Bft)
01.03.2010 01:28 12,4 C 5,1 C 0,0 UV-I 0,0 C 55 % 86 % 0 % 998,2 hPa 0,0 l/m 14,1 km/h (3 Bft) 0 min 9,1 km/h (2 Bft)
01.03.2010 01:34 12,4 C 5,1 C 0,0 UV-I 0,0 C 55 % 85 % 0 % 998,1 hPa 0,0 l/m 14,9 km/h (3 Bft) 0 min 17,1 km/h (3 Bft)
01.03.2010 01:36 12,4 C 5,1 C 0,0 UV-I 0,0 C 54 % 85 % 0 % 998,1 hPa 0,0 l/m 14,1 km/h (3 Bft) 0 min 10,6 km/h (2 Bft)
01.03.2010 01:38 12,4 C 5,0 C 0,0 UV-I 0,0 C 54 % 85 % 0 % 998,1 hPa 0,0 l/m 13,7 km/h (3 Bft) 0 min 6,3 km/h (2 Bft)
01.03.2010 01:40 12,4 C 5,0 C 0,0 UV-I 0,0 C 54 % 85 % 0 % 998,1 hPa 0,0 l/m 13,7 km/h (3 Bft) 0 min 13,0 km/h (3 Bft)
01.03.2010 01:42 12,4 C 5,1 C 0,0 UV-I 0,0 C 54 % 85 % 0 % 998,1 hPa 0,0 l/m 14,1 km/h (3 Bft) 0 min 13,0 km/h (3 Bft)
01.03.2010 01:46 12,4 C 5,1 C 0,0 UV-I 0,0 C 54 % 84 % 0 % 998,1 hPa 0,0 l/m 14,1 km/h (3 Bft) 0 min 14,7 km/h (3 Bft)
01.03.2010 01:48 12,4 C 5,1 C 0,0 UV-I 0,0 C 54 % 84 % 0 % 998,1 hPa 0,0 l/m 14,5 km/h (3 Bft) 0 min 29,4 km/h (5 Bft)
01.03.2010 01:50 12,4 C 5,0 C 0,0 UV-I 0,0 C 54 % 84 % 0 % 998,1 hPa 0,0 l/m 15,3 km/h (3 Bft) 0 min 16,8 km/h (3 Bft)
01.03.2010 01:52 12,4 C 5,1 C 0,0 UV-I 0,0 C 54 % 84 % 0 % 998,1 hPa 0,0 l/m 15,3 km/h (3 Bft) 0 min 29,4 km/h (5 Bft)
01.03.2010 01:54 12,4 C 5,0 C 0,0 UV-I 0,0 C 54 % 84 % 0 % 998,1 hPa 0,0 l/m 14,5 km/h (3 Bft) 0 min 8,4 km/h (2 Bft)
01.03.2010 01:56 12,4 C 5,0 C 0,0 UV-I 0,0 C 54 % 84 % 0 % 998,1 hPa 0,0 l/m 14,9 km/h (3 Bft) 0 min 13,2 km/h (3 Bft)
01.03.2010 02:00 12,4 C 5,1 C 0,0 UV-I 0,0 C 54 % 84 % 0 % 998,1 hPa 0,0 l/m 14,5 km/h (3 Bft) 0 min 11,5 km/h (2 Bft)
01.03.2010 02:04 12,4 C 5,1 C 0,0 UV-I 0,0 C 54 % 84 % 0 % 998,1 hPa 0,0 l/m 13,7 km/h (3 Bft) 0 min 15,2 km/h (3 Bft)
01.03.2010 02:10 12,4 C 5,1 C 0,0 UV-I 0,0 C 54 % 84 % 0 % 998,1 hPa 0,0 l/m 13,3 km/h (3 Bft) 0 min 7,7 km/h (2 Bft)
01.03.2010 02:12 12,4 C 5,1 C 0,0 UV-I 0,0 C 54 % 84 % 0 % 998,3 hPa 0,0 l/m 12,8 km/h (3 Bft) 0 min 9,9 km/h (2 Bft)
01.03.2010 02:14 12,4 C 5,1 C 0,0 UV-I 0,0 C 54 % 84 % 0 % 998,3 hPa 0,0 l/m 12,4 km/h (3 Bft) 0 min 10,6 km/h (2 Bft)
01.03.2010 02:16 12,4 C 5,1 C 0,0 UV-I 0,0 C 54 % 85 % 0 % 998,3 hPa 0,0 l/m 13,3 km/h (3 Bft) 0 min 20,2 km/h (4 Bft)
01.03.2010 02:18 12,4 C 5,1 C 0,0 UV-I 0,0 C 54 % 85 % 0 % 998,3 hPa 0,0 l/m 13,7 km/h (3 Bft) 0 min 7,2 km/h (2 Bft)
01.03.2010 02:20 12,4 C 5,1 C 0,0 UV-I 0,0 C 54 % 85 % 0 % 998,3 hPa 0,0 l/m 13,7 km/h (3 Bft) 0 min 9,4 km/h (2 Bft)
01.03.2010 02:28 12,4 C 5,1 C 0,0 UV-I 0,0 C 54 % 85 % 0 % 998,3 hPa 0,1 l/m 11,2 km/h (2 Bft) 0 min 11,8 km/h (2 Bft)
01.03.2010 02:30 12,4 C 5,1 C 0,0 UV-I 0,0 C 54 % 85 % 0 % 998,3 hPa 0,0 l/m 10,4 km/h (2 Bft) 0 min 5,3 km/h (1 Bft)
01.03.2010 02:32 12,4 C 5,1 C 0,0 UV-I 0,0 C 54 % 85 % 0 % 999,1 hPa 0,0 l/m 10,8 km/h (2 Bft) 0 min 10,6 km/h (2 Bft)
01.03.2010 02:36 12,4 C 5,1 C 0,0 UV-I 0,0 C 54 % 85 % 0 % 999,1 hPa 0,0 l/m 11,2 km/h (2 Bft) 0 min 6,0 km/h (2 Bft)
01.03.2010 02:40 12,4 C 5,1 C 0,0 UV-I 0,0 C 54 % 85 % 0 % 999,1 hPa 0,0 l/m 10,8 km/h (2 Bft) 0 min 8,2 km/h (2 Bft)
01.03.2010 02:42 12,4 C 5,1 C 0,0 UV-I 0,0 C 54 % 85 % 0 % 999,1 hPa 0,0 l/m 10,4 km/h (2 Bft) 0 min 5,3 km/h (1 Bft)
01.03.2010 02:44 12,4 C 5,1 C 0,0 UV-I 0,0 C 54 % 86 % 0 % 999,1 hPa 0,0 l/m 10,0 km/h (2 Bft) 0 min 6,7 km/h (2 Bft)
01.03.2010 02:46 12,6 C 5,1 C 0,0 UV-I 0,0 C 54 % 86 % 0 % 999,1 hPa 0,0 l/m 9,6 km/h (2 Bft) 0 min 13,2 km/h (3 Bft)
01.03.2010 02:49 12,4 C 5,1 C 0,0 UV-I 0,0 C 54 % 86 % 0 % 999,1 hPa 0,0 l/m 8,8 km/h (2 Bft) 0 min 4,8 km/h (1 Bft)
01.03.2010 02:54 12,4 C 5,1 C 0,0 UV-I 0,0 C 54 % 86 % 0 % 998,9 hPa 0,0 l/m 8,8 km/h (2 Bft) 0 min 6,0 km/h (2 Bft)
01.03.2010 02:59 12,6 C 5,1 C 0,0 UV-I 0,0 C 54 % 86 % 0 % 998,9 hPa 0,0 l/m 11,2 km/h (2 Bft) 0 min 12,5 km/h (3 Bft)
01.03.2010 03:04 12,6 C 5,1 C 0,0 UV-I 0,0 C 54 % 86 % 0 % 998,9 hPa 0,0 l/m 11,2 km/h (2 Bft) 0 min 8,7 km/h (2 Bft)
01.03.2010 03:09 12,6 C 5,1 C 0,0 UV-I 0,0 C 54 % 86 % 0 % 998,9 hPa 0,0 l/m 11,2 km/h (2 Bft) 0 min 6,5 km/h (2 Bft)
01.03.2010 03:14 12,6 C 5,0 C 0,0 UV-I 0,0 C 54 % 86 % 0 % 999,0 hPa 0,0 l/m 12,4 km/h (3 Bft) 0 min 9,6 km/h (2 Bft)
01.03.2010 03:19 12,6 C 5,0 C 0,0 UV-I 0,0 C 54 % 86 % 0 % 999,0 hPa 0,0 l/m 12,4 km/h (3 Bft) 0 min 5,8 km/h (2 Bft)
01.03.2010 03:24 12,6 C 4,9 C 0,0 UV-I 0,0 C 54 % 86 % 0 % 999,0 hPa 0,0 l/m 12,8 km/h (3 Bft) 0 min 9,6 km/h (2 Bft)
01.03.2010 03:29 12,6 C 4,9 C 0,0 UV-I 0,0 C 54 % 86 % 0 % 999,0 hPa 0,0 l/m 12,8 km/h (3 Bft) 0 min 20,0 km/h (4 Bft)
01.03.2010 03:34 12,6 C 4,8 C 0,0 UV-I 0,0 C 54 % 86 % 0 % 999,2 hPa 0,0 l/m 14,1 km/h (3 Bft) 0 min 7,2 km/h (2 Bft)
01.03.2010 03:39 12,6 C 4,9 C 0,0 UV-I 0,0 C 54 % 86 % 0 % 999,2 hPa 0,0 l/m 13,7 km/h (3 Bft) 0 min 7,7 km/h (2 Bft)
01.03.2010 03:44 12,6 C 4,8 C 0,0 UV-I 0,0 C 54 % 86 % 0 % 999,2 hPa 0,0 l/m 13,3 km/h (3 Bft) 0 min 7,5 km/h (2 Bft)
01.03.2010 03:49 12,6 C 4,8 C 0,0 UV-I 0,0 C 54 % 87 % 0 % 999,2 hPa 0,0 l/m 13,7 km/h (3 Bft) 0 min 7,5 km/h (2 Bft)
01.03.2010 03:54 12,4 C 4,7 C 0,0 UV-I 0,0 C 54 % 87 % 0 % 999,7 hPa 0,0 l/m 14,1 km/h (3 Bft) 0 min 3,8 km/h (1 Bft)
01.03.2010 03:59 12,4 C 4,7 C 0,0 UV-I 0,0 C 54 % 87 % 0 % 999,7 hPa 0,0 l/m 12,4 km/h (3 Bft) 0 min 9,6 km/h (2 Bft)
01.03.2010 04:04 12,4 C 4,6 C 0,0 UV-I 0,0 C 54 % 87 % 0 % 999,7 hPa 0,0 l/m 11,2 km/h (2 Bft) 0 min 14,0 km/h (3 Bft)
01.03.2010 04:09 12,4 C 4,6 C 0,0 UV-I 0,0 C 54 % 87 % 0 % 999,7 hPa 0,0 l/m 15,3 km/h (3 Bft) 0 min 17,6 km/h (3 Bft)
01.03.2010 04:14 12,4 C 4,7 C 0,0 UV-I 0,0 C 54 % 87 % 0 % 999,8 hPa 0,0 l/m 17,3 km/h (3 Bft) 0 min 14,9 km/h (3 Bft)
01.03.2010 04:19 12,5 C 4,7 C 0,0 UV-I 0,0 C 54 % 87 % 0 % 999,8 hPa 0,0 l/m 15,7 km/h (3 Bft) 0 min 9,1 km/h (2 Bft)
01.03.2010 04:20 12,5 C 4,7 C 0,0 UV-I 0,0 C 54 % 87 % 0 % 999,8 hPa 0,0 l/m 15,7 km/h (3 Bft) 0 min 9,1 km/h (2 Bft)
01.03.2010 04:22 12,5 C 4,6 C 0,0 UV-I 0,0 C 54 % 87 % 0 % 999,8 hPa 0,0 l/m 14,5 km/h (3 Bft) 0 min 13,5 km/h (3 Bft)
01.03.2010 04:24 12,4 C 4,5 C 0,0 UV-I 0,0 C 54 % 87 % 0 % 999,8 hPa 0,0 l/m 14,5 km/h (3 Bft) 0 min 17,1 km/h (3 Bft)
01.03.2010 04:26 12,4 C 4,5 C 0,0 UV-I 0,0 C 54 % 87 % 0 % 999,8 hPa 0,0 l/m 14,1 km/h (3 Bft) 0 min 6,5 km/h (2 Bft)
01.03.2010 04:28 12,5 C 4,5 C 0,0 UV-I 0,0 C 54 % 87 % 0 % 999,8 hPa 0,0 l/m 16,5 km/h (3 Bft) 0 min 9,9 km/h (2 Bft)
01.03.2010 04:30 12,5 C 4,5 C 0,0 UV-I 0,0 C 54 % 87 % 0 % 999,8 hPa 0,0 l/m 14,9 km/h (3 Bft) 0 min 4,1 km/h (1 Bft)
01.03.2010 04:32 12,5 C 4,5 C 0,0 UV-I 0,0 C 54 % 87 % 0 % 1000,4 hPa 0,0 l/m 13,7 km/h (3 Bft) 0 min 6,7 km/h (2 Bft)
01.03.2010 04:34 12,5 C 4,4 C 0,0 UV-I 0,0 C 54 % 87 % 0 % 1000,4 hPa 0,0 l/m 13,7 km/h (3 Bft) 0 min 15,9 km/h (3 Bft)
01.03.2010 04:36 12,5 C 4,4 C 0,0 UV-I 0,0 C 54 % 88 % 0 % 1000,4 hPa 0,0 l/m 13,7 km/h (3 Bft) 0 min 19,2 km/h (3 Bft)
01.03.2010 04:38 12,5 C 4,5 C 0,0 UV-I 0,0 C 54 % 88 % 0 % 1000,4 hPa 0,0 l/m 11,6 km/h (2 Bft) 0 min 9,9 km/h (2 Bft)
01.03.2010 04:40 12,5 C 4,4 C 0,0 UV-I 0,0 C 54 % 88 % 0 % 1000,4 hPa 0,0 l/m 11,6 km/h (2 Bft) 0 min 13,5 km/h (3 Bft)
01.03.2010 04:42 12,5 C 4,4 C 0,0 UV-I 0,0 C 54 % 88 % 0 % 1000,4 hPa 0,0 l/m 12,4 km/h (3 Bft) 0 min 7,7 km/h (2 Bft)
01.03.2010 04:44 12,5 C 4,3 C 0,0 UV-I 0,0 C 54 % 88 % 0 % 1000,4 hPa 0,0 l/m 12,4 km/h (3 Bft) 0 min 8,2 km/h (2 Bft)
01.03.2010 04:46 12,5 C 4,3 C 0,0 UV-I 0,0 C 54 % 88 % 0 % 1000,4 hPa 0,0 l/m 12,0 km/h (2 Bft) 0 min 7,5 km/h (2 Bft)
01.03.2010 04:48 12,5 C 4,3 C 0,0 UV-I 0,0 C 54 % 88 % 0 % 1000,4 hPa 0,0 l/m 12,8 km/h (3 Bft) 0 min 6,7 km/h (2 Bft)
01.03.2010 04:50 12,5 C 4,3 C 0,0 UV-I 0,0 C 54 % 88 % 0 % 1000,4 hPa 0,0 l/m 13,3 km/h (3 Bft) 0 min 11,5 km/h (2 Bft)
01.03.2010 04:52 12,5 C 4,3 C 0,0 UV-I 0,0 C 54 % 88 % 0 % 1000,8 hPa 0,1 l/m 12,8 km/h (3 Bft) 0 min 5,5 km/h (1 Bft)
01.03.2010 04:54 12,5 C 4,3 C 0,0 UV-I 0,0 C 54 % 89 % 0 % 1000,8 hPa 0,0 l/m 13,7 km/h (3 Bft) 0 min 7,2 km/h (2 Bft)
01.03.2010 04:56 12,5 C 4,3 C 0,0 UV-I 0,0 C 54 % 89 % 0 % 1000,8 hPa 0,0 l/m 13,3 km/h (3 Bft) 0 min 10,6 km/h (2 Bft)
01.03.2010 04:58 12,5 C 4,1 C 0,0 UV-I 0,0 C 54 % 89 % 0 % 1000,8 hPa 0,1 l/m 12,0 km/h (2 Bft) 0 min 7,5 km/h (2 Bft)
01.03.2010 05:00 12,5 C 4,1 C 0,0 UV-I 0,0 C 54 % 89 % 0 % 1000,8 hPa 0,0 l/m 11,6 km/h (2 Bft) 0 min 13,0 km/h (3 Bft)
01.03.2010 05:02 12,5 C 4,1 C 0,0 UV-I 0,0 C 54 % 89 % 0 % 1000,8 hPa 0,0 l/m 10,8 km/h (2 Bft) 0 min 5,5 km/h (1 Bft)
01.03.2010 05:04 12,5 C 4,1 C 0,0 UV-I 0,0 C 54 % 89 % 0 % 1000,8 hPa 0,0 l/m 8,8 km/h (2 Bft) 0 min 7,0 km/h (2 Bft)
01.03.2010 05:06 12,5 C 4,1 C 0,0 UV-I 0,0 C 54 % 89 % 0 % 1000,8 hPa 0,1 l/m 9,2 km/h (2 Bft) 0 min 5,8 km/h (2 Bft)
01.03.2010 05:08 12,5 C 4,1 C 0,0 UV-I 0,0 C 54 % 90 % 0 % 1000,8 hPa 0,0 l/m 8,8 km/h (2 Bft) 0 min 9,9 km/h (2 Bft)
01.03.2010 05:10 12,5 C 4,0 C 0,0 UV-I 0,0 C 54 % 90 % 0 % 1000,8 hPa 0,0 l/m 9,6 km/h (2 Bft) 0 min 15,2 km/h (3 Bft)
01.03.2010 05:12 12,5 C 4,0 C 0,0 UV-I 0,0 C 54 % 90 % 0 % 1001,1 hPa 0,0 l/m 9,6 km/h (2 Bft) 0 min 8,9 km/h (2 Bft)
01.03.2010 05:14 12,5 C 4,1 C 0,0 UV-I 0,0 C 54 % 90 % 0 % 1001,1 hPa 0,0 l/m 10,0 km/h (2 Bft) 0 min 4,8 km/h (1 Bft)
01.03.2010 05:16 12,4 C 4,1 C 0,0 UV-I 0,0 C 54 % 90 % 0 % 1001,1 hPa 0,0 l/m 10,4 km/h (2 Bft) 0 min 11,3 km/h (2 Bft)
01.03.2010 05:18 12,5 C 4,1 C 0,0 UV-I 0,0 C 54 % 90 % 0 % 1001,1 hPa 0,0 l/m 9,6 km/h (2 Bft) 0 min 5,5 km/h (1 Bft)
01.03.2010 05:20 12,4 C 4,0 C 0,0 UV-I 0,0 C 54 % 90 % 0 % 1001,1 hPa 0,0 l/m 10,0 km/h (2 Bft) 0 min 19,2 km/h (3 Bft)
01.03.2010 05:22 12,4 C 4,0 C 0,0 UV-I 0,0 C 54 % 90 % 0 % 1001,1 hPa 0,0 l/m 10,0 km/h (2 Bft) 0 min 6,5 km/h (2 Bft)
01.03.2010 05:24 12,5 C 4,0 C 0,0 UV-I 0,0 C 54 % 90 % 0 % 1001,1 hPa 0,1 l/m 10,4 km/h (2 Bft) 0 min 18,3 km/h (3 Bft)
01.03.2010 05:26 12,5 C 4,0 C 0,0 UV-I 0,0 C 54 % 90 % 0 % 1001,1 hPa 0,0 l/m 10,8 km/h (2 Bft) 0 min 6,0 km/h (2 Bft)
01.03.2010 05:28 12,5 C 4,0 C 0,0 UV-I 0,0 C 54 % 90 % 0 % 1001,1 hPa 0,0 l/m 10,8 km/h (2 Bft) 0 min 6,3 km/h (2 Bft)
01.03.2010 05:30 12,5 C 4,0 C 0,0 UV-I 0,0 C 54 % 90 % 0 % 1001,1 hPa 0,0 l/m 10,4 km/h (2 Bft) 0 min 4,3 km/h (1 Bft)
01.03.2010 05:32 12,5 C 4,0 C 0,0 UV-I 0,0 C 54 % 90 % 0 % 1001,6 hPa 0,0 l/m 10,0 km/h (2 Bft) 0 min 10,3 km/h (2 Bft)
01.03.2010 05:34 12,4 C 3,9 C 0,0 UV-I 0,0 C 54 % 90 % 0 % 1001,6 hPa 0,0 l/m 10,0 km/h (2 Bft) 0 min 8,7 km/h (2 Bft)
01.03.2010 05:36 12,5 C 3,9 C 0,0 UV-I 0,0 C 54 % 90 % 0 % 1001,6 hPa 0,0 l/m 9,2 km/h (2 Bft) 0 min 6,7 km/h (2 Bft)
01.03.2010 05:38 12,5 C 3,9 C 0,0 UV-I 0,0 C 54 % 90 % 0 % 1001,6 hPa 0,0 l/m 8,0 km/h (2 Bft) 0 min 6,3 km/h (2 Bft)
01.03.2010 05:40 12,5 C 3,9 C 0,0 UV-I 0,0 C 54 % 90 % 0 % 1001,6 hPa 0,0 l/m 8,8 km/h (2 Bft) 0 min 9,6 km/h (2 Bft)
01.03.2010 05:42 12,4 C 3,9 C 0,0 UV-I 0,0 C 54 % 90 % 0 % 1001,6 hPa 0,0 l/m 9,2 km/h (2 Bft) 0 min 4,6 km/h (1 Bft)
01.03.2010 05:44 12,5 C 3,9 C 0,0 UV-I 0,0 C 54 % 90 % 0 % 1001,6 hPa 0,0 l/m 8,8 km/h (2 Bft) 0 min 7,5 km/h (2 Bft)
01.03.2010 05:46 12,4 C 3,9 C 0,0 UV-I 0,0 C 54 % 90 % 0 % 1001,6 hPa 0,0 l/m 8,4 km/h (2 Bft) 0 min 7,0 km/h (2 Bft)
01.03.2010 05:48 12,5 C 3,9 C 0,0 UV-I 0,0 C 54 % 90 % 0 % 1001,6 hPa 0,0 l/m 8,4 km/h (2 Bft) 0 min 4,6 km/h (1 Bft)
01.03.2010 05:50 12,4 C 3,9 C 0,0 UV-I 0,0 C 54 % 90 % 0 % 1001,6 hPa 0,0 l/m 8,8 km/h (2 Bft) 0 min 12,5 km/h (3 Bft)
01.03.2010 05:52 12,4 C 3,9 C 0,0 UV-I 0,0 C 54 % 90 % 0 % 1002,0 hPa 0,0 l/m 9,6 km/h (2 Bft) 0 min 9,6 km/h (2 Bft)
01.03.2010 05:54 12,4 C 3,9 C 0,0 UV-I 0,0 C 54 % 90 % 0 % 1002,0 hPa 0,0 l/m 10,0 km/h (2 Bft) 0 min 7,2 km/h (2 Bft)
01.03.2010 05:56 12,4 C 3,9 C 0,0 UV-I 0,0 C 54 % 90 % 0 % 1002,0 hPa 0,0 l/m 10,0 km/h (2 Bft) 0 min 15,9 km/h (3 Bft)
01.03.2010 05:58 12,4 C 3,8 C 0,0 UV-I 0,0 C 54 % 90 % 0 % 1002,0 hPa 0,0 l/m 10,8 km/h (2 Bft) 0 min 14,4 km/h (3 Bft)
01.03.2010 06:00 12,4 C 3,8 C 0,0 UV-I 0,0 C 54 % 90 % 0 % 1002,0 hPa 0,0 l/m 11,2 km/h (2 Bft) 0 min 11,8 km/h (2 Bft)
01.03.2010 06:02 12,5 C 3,9 C 0,0 UV-I 0,0 C 54 % 90 % 0 % 1002,0 hPa 0,0 l/m 10,8 km/h (2 Bft) 0 min 14,2 km/h (3 Bft)
01.03.2010 06:04 12,5 C 3,9 C 0,0 UV-I 0,0 C 54 % 90 % 0 % 1002,0 hPa 0,0 l/m 10,8 km/h (2 Bft) 0 min 14,2 km/h (3 Bft)
01.03.2010 06:06 12,4 C 3,9 C 0,0 UV-I 0,0 C 54 % 90 % 0 % 1002,0 hPa 0,0 l/m 10,8 km/h (2 Bft) 0 min 6,5 km/h (2 Bft)
01.03.2010 06:08 12,5 C 3,9 C 0,0 UV-I 0,0 C 54 % 90 % 0 % 1002,0 hPa 0,0 l/m 11,2 km/h (2 Bft) 0 min 26,2 km/h (4 Bft)
01.03.2010 06:10 12,5 C 3,9 C 0,0 UV-I 0,0 C 54 % 90 % 0 % 1002,0 hPa 0,0 l/m 10,0 km/h (2 Bft) 0 min 4,1 km/h (1 Bft)
01.03.2010 06:12 12,5 C 3,9 C 0,0 UV-I 0,0 C 54 % 90 % 0 % 1002,4 hPa 0,0 l/m 10,0 km/h (2 Bft) 0 min 12,0 km/h (2 Bft)
01.03.2010 06:14 12,5 C 3,9 C 0,0 UV-I 0,0 C 54 % 90 % 0 % 1002,4 hPa 0,1 l/m 9,2 km/h (2 Bft) 0 min 4,6 km/h (1 Bft)
01.03.2010 06:16 12,5 C 3,9 C 0,0 UV-I 0,0 C 54 % 90 % 0 % 1002,4 hPa 0,0 l/m 10,4 km/h (2 Bft) 0 min 18,5 km/h (3 Bft)
01.03.2010 06:18 12,5 C 3,9 C 0,0 UV-I 0,0 C 54 % 90 % 0 % 1002,4 hPa 0,0 l/m 10,4 km/h (2 Bft) 0 min 7,0 km/h (2 Bft)
01.03.2010 06:20 12,5 C 3,9 C 0,0 UV-I 0,0 C 54 % 90 % 0 % 1002,4 hPa 0,0 l/m 10,4 km/h (2 Bft) 0 min 9,1 km/h (2 Bft)
01.03.2010 06:22 12,3 C 3,9 C 0,0 UV-I 0,0 C 54 % 91 % 0 % 1002,4 hPa 0,0 l/m 10,8 km/h (2 Bft) 0 min 7,2 km/h (2 Bft)
01.03.2010 06:24 12,3 C 3,8 C 0,0 UV-I 0,0 C 54 % 91 % 0 % 1002,4 hPa 0,0 l/m 10,4 km/h (2 Bft) 0 min 6,5 km/h (2 Bft)
01.03.2010 06:26 12,3 C 3,8 C 0,0 UV-I 0,0 C 54 % 91 % 0 % 1002,4 hPa 0,0 l/m 10,4 km/h (2 Bft) 0 min 8,7 km/h (2 Bft)
01.03.2010 06:28 12,3 C 3,7 C 0,0 UV-I 0,0 C 54 % 91 % 0 % 1002,4 hPa 0,0 l/m 9,2 km/h (2 Bft) 0 min 5,5 km/h (1 Bft)
01.03.2010 06:30 12,3 C 3,8 C 0,0 UV-I 0,0 C 54 % 91 % 0 % 1002,4 hPa 0,0 l/m 9,6 km/h (2 Bft) 0 min 12,3 km/h (3 Bft)
01.03.2010 06:32 12,3 C 3,8 C 0,0 UV-I 0,0 C 54 % 91 % 0 % 1002,5 hPa 0,0 l/m 8,8 km/h (2 Bft) 0 min 6,7 km/h (2 Bft)
01.03.2010 06:34 12,3 C 3,8 C 0,0 UV-I 0,0 C 54 % 91 % 0 % 1002,5 hPa 0,0 l/m 9,6 km/h (2 Bft) 0 min 10,3 km/h (2 Bft)
01.03.2010 06:36 12,3 C 3,8 C 0,0 UV-I 0,0 C 54 % 91 % 0 % 1002,5 hPa 0,0 l/m 9,6 km/h (2 Bft) 0 min 9,4 km/h (2 Bft)
01.03.2010 06:38 12,3 C 3,8 C 0,0 UV-I 0,0 C 54 % 91 % 0 % 1002,5 hPa 0,0 l/m 10,0 km/h (2 Bft) 0 min 6,3 km/h (2 Bft)
01.03.2010 06:40 12,3 C 3,7 C 0,0 UV-I 0,0 C 54 % 91 % 0 % 1002,5 hPa 0,0 l/m 9,6 km/h (2 Bft) 0 min 3,6 km/h (1 Bft)
01.03.2010 06:42 12,3 C 3,8 C 0,0 UV-I 0,0 C 54 % 91 % 0 % 1002,5 hPa 0,0 l/m 10,0 km/h (2 Bft) 0 min 5,8 km/h (2 Bft)
01.03.2010 06:44 12,3 C 3,8 C 0,0 UV-I 0,0 C 54 % 91 % 0 % 1002,5 hPa 0,0 l/m 10,4 km/h (2 Bft) 0 min 4,6 km/h (1 Bft)
01.03.2010 06:46 12,3 C 3,9 C 0,0 UV-I 0,0 C 54 % 91 % 0 % 1002,5 hPa 0,0 l/m 9,2 km/h (2 Bft) 0 min 5,8 km/h (2 Bft)
01.03.2010 06:48 12,3 C 3,8 C 0,0 UV-I 0,0 C 54 % 91 % 0 % 1002,5 hPa 0,0 l/m 8,8 km/h (2 Bft) 0 min 5,8 km/h (2 Bft)
01.03.2010 06:50 12,3 C 3,8 C 0,0 UV-I 0,0 C 54 % 91 % 0 % 1002,5 hPa 0,0 l/m 8,4 km/h (2 Bft) 0 min 5,1 km/h (1 Bft)
01.03.2010 06:52 12,3 C 3,9 C 0,0 UV-I 0,0 C 54 % 91 % 0 % 1003,1 hPa 0,0 l/m 8,4 km/h (2 Bft) 0 min 5,5 km/h (1 Bft)
01.03.2010 06:54 12,3 C 3,8 C 0,0 UV-I 0,0 C 54 % 91 % 0 % 1003,1 hPa 0,0 l/m 8,4 km/h (2 Bft) 0 min 7,5 km/h (2 Bft)
01.03.2010 06:56 12,3 C 3,8 C 0,0 UV-I 0,0 C 54 % 91 % 0 % 1003,1 hPa 0,0 l/m 8,8 km/h (2 Bft) 0 min 12,5 km/h (3 Bft)
01.03.2010 06:58 12,3 C 3,9 C 0,0 UV-I 0,0 C 54 % 91 % 0 % 1003,1 hPa 0,0 l/m 9,6 km/h (2 Bft) 0 min 4,6 km/h (1 Bft)
01.03.2010 07:02 12,3 C 3,9 C 0,0 UV-I 0,0 C 54 % 91 % 0 % 1003,1 hPa 0,1 l/m 10,8 km/h (2 Bft) 0 min 13,7 km/h (3 Bft)
01.03.2010 07:04 12,3 C 3,9 C 0,0 UV-I 0,0 C 54 % 91 % 0 % 1003,1 hPa 0,0 l/m 10,8 km/h (2 Bft) 0 min 5,8 km/h (2 Bft)
01.03.2010 07:06 12,3 C 3,9 C 0,0 UV-I 0,0 C 54 % 91 % 0 % 1003,1 hPa 0,1 l/m 10,8 km/h (2 Bft) 0 min 5,5 km/h (1 Bft)
01.03.2010 07:08 12,3 C 3,9 C 0,0 UV-I 0,0 C 54 % 91 % 0 % 1003,1 hPa 0,0 l/m 10,4 km/h (2 Bft) 0 min 4,8 km/h (1 Bft)
01.03.2010 07:10 12,3 C 3,8 C 0,0 UV-I 0,0 C 54 % 91 % 0 % 1003,1 hPa 0,0 l/m 10,4 km/h (2 Bft) 0 min 6,5 km/h (2 Bft)
01.03.2010 07:12 12,3 C 3,9 C 0,0 UV-I 0,0 C 54 % 91 % 0 % 1003,2 hPa 0,0 l/m 10,4 km/h (2 Bft) 0 min 12,8 km/h (3 Bft)
01.03.2010 07:14 12,3 C 3,9 C 0,0 UV-I 0,0 C 54 % 91 % 0 % 1003,2 hPa 0,0 l/m 9,6 km/h (2 Bft) 0 min 4,3 km/h (1 Bft)
01.03.2010 07:16 12,3 C 3,7 C 0,0 UV-I 0,0 C 54 % 91 % 0 % 1003,2 hPa 0,0 l/m 9,6 km/h (2 Bft) 0 min 12,3 km/h (3 Bft)
01.03.2010 07:18 12,3 C 3,8 C 0,0 UV-I 0,0 C 54 % 91 % 0 % 1003,2 hPa 0,0 l/m 9,2 km/h (2 Bft) 0 min 7,5 km/h (2 Bft)
01.03.2010 07:20 12,4 C 3,8 C 0,0 UV-I 0,0 C 54 % 91 % 0 % 1003,2 hPa 0,0 l/m 9,6 km/h (2 Bft) 0 min 7,7 km/h (2 Bft)
01.03.2010 07:22 12,4 C 3,9 C 0,0 UV-I 0,0 C 54 % 91 % 0 % 1003,2 hPa 0,0 l/m 8,8 km/h (2 Bft) 0 min 5,1 km/h (1 Bft)
01.03.2010 07:24 12,3 C 3,9 C 0,0 UV-I 0,0 C 54 % 91 % 0 % 1003,2 hPa 0,0 l/m 8,8 km/h (2 Bft) 0 min 5,3 km/h (1 Bft)
01.03.2010 07:26 12,3 C 3,9 C 0,0 UV-I 0,0 C 54 % 91 % 0 % 1003,2 hPa 0,0 l/m 8,4 km/h (2 Bft) 0 min 7,5 km/h (2 Bft)
01.03.2010 07:28 12,4 C 3,9 C 0,0 UV-I 0,0 C 54 % 91 % 0 % 1003,2 hPa 0,0 l/m 8,8 km/h (2 Bft) 0 min 14,4 km/h (3 Bft)
01.03.2010 07:30 12,3 C 3,9 C 0,0 UV-I 0,0 C 54 % 91 % 0 % 1003,2 hPa 0,0 l/m 9,2 km/h (2 Bft) 0 min 9,4 km/h (2 Bft)
01.03.2010 07:32 12,3 C 3,9 C 0,0 UV-I 0,0 C 54 % 91 % 0 % 1003,8 hPa 0,0 l/m 8,8 km/h (2 Bft) 0 min 6,5 km/h (2 Bft)
01.03.2010 07:34 12,4 C 3,9 C 0,0 UV-I 0,0 C 54 % 91 % 0 % 1003,8 hPa 0,0 l/m 9,2 km/h (2 Bft) 0 min 7,5 km/h (2 Bft)
01.03.2010 07:36 12,3 C 3,9 C 0,0 UV-I 0,0 C 54 % 91 % 0 % 1003,8 hPa 0,0 l/m 9,6 km/h (2 Bft) 0 min 6,5 km/h (2 Bft)
01.03.2010 07:40 12,4 C 3,9 C 0,0 UV-I 0,0 C 54 % 91 % 0 % 1003,8 hPa 0,0 l/m 8,8 km/h (2 Bft) 0 min 11,8 km/h (2 Bft)
01.03.2010 07:42 12,3 C 3,8 C 0,0 UV-I 0,0 C 54 % 91 % 0 % 1003,8 hPa 0,0 l/m 9,6 km/h (2 Bft) 0 min 9,9 km/h (2 Bft)
01.03.2010 07:44 12,3 C 3,9 C 0,0 UV-I 0,0 C 54 % 91 % 0 % 1003,8 hPa 0,0 l/m 10,8 km/h (2 Bft) 0 min 12,8 km/h (3 Bft)
01.03.2010 07:46 12,3 C 3,9 C 0,0 UV-I 0,0 C 54 % 90 % 0 % 1003,8 hPa 0,0 l/m 10,0 km/h (2 Bft) 0 min 7,5 km/h (2 Bft)
01.03.2010 07:48 12,3 C 3,9 C 0,0 UV-I 0,0 C 54 % 91 % 0 % 1003,8 hPa 0,0 l/m 10,8 km/h (2 Bft) 0 min 13,0 km/h (3 Bft)
01.03.2010 07:52 12,3 C 3,9 C 0,0 UV-I 0,0 C 54 % 91 % 0 % 1004,2 hPa 0,0 l/m 10,4 km/h (2 Bft) 0 min 5,5 km/h (1 Bft)
01.03.2010 07:54 12,3 C 3,9 C 0,0 UV-I 0,0 C 54 % 90 % 0 % 1004,2 hPa 0,0 l/m 9,2 km/h (2 Bft) 0 min 4,3 km/h (1 Bft)
01.03.2010 07:56 12,3 C 3,9 C 0,0 UV-I 0,0 C 54 % 91 % 0 % 1004,2 hPa 0,0 l/m 8,8 km/h (2 Bft) 0 min 4,3 km/h (1 Bft)
01.03.2010 07:58 12,3 C 3,9 C 0,0 UV-I 0,0 C 54 % 90 % 0 % 1004,2 hPa 0,0 l/m 9,6 km/h (2 Bft) 0 min 7,5 km/h (2 Bft)
01.03.2010 08:00 12,4 C 4,0 C 0,0 UV-I 0,0 C 54 % 90 % 0 % 1004,2 hPa 0,0 l/m 10,0 km/h (2 Bft) 0 min 12,8 km/h (3 Bft)
01.03.2010 08:02 12,3 C 3,9 C 0,0 UV-I 0,0 C 54 % 90 % 0 % 1004,2 hPa 0,0 l/m 9,2 km/h (2 Bft) 0 min 5,3 km/h (1 Bft)
01.03.2010 08:04 12,4 C 3,9 C 0,0 UV-I 0,0 C 54 % 90 % 0 % 1004,2 hPa 0,0 l/m 9,2 km/h (2 Bft) 0 min 5,5 km/h (1 Bft)
01.03.2010 08:06 12,3 C 3,9 C 0,0 UV-I 0,0 C 54 % 90 % 0 % 1004,2 hPa 0,0 l/m 9,2 km/h (2 Bft) 0 min 3,6 km/h (1 Bft)
01.03.2010 08:08 12,3 C 3,9 C 0,0 UV-I 0,0 C 54 % 90 % 0 % 1004,2 hPa 0,0 l/m 8,8 km/h (2 Bft) 0 min 3,6 km/h (1 Bft)
01.03.2010 08:10 12,3 C 4,0 C 0,0 UV-I 0,0 C 54 % 90 % 0 % 1004,2 hPa 0,0 l/m 7,6 km/h (2 Bft) 0 min 6,0 km/h (2 Bft)
01.03.2010 08:12 12,3 C 4,0 C 0,0 UV-I 0,0 C 54 % 90 % 0 % 1004,4 hPa 0,0 l/m 8,0 km/h (2 Bft) 0 min 10,1 km/h (2 Bft)
01.03.2010 08:14 12,4 C 4,0 C 0,0 UV-I 0,0 C 54 % 90 % 0 % 1004,4 hPa 0,0 l/m 8,8 km/h (2 Bft) 0 min 10,1 km/h (2 Bft)
01.03.2010 08:16 12,3 C 4,0 C 0,0 UV-I 0,0 C 54 % 90 % 0 % 1004,4 hPa 0,0 l/m 8,8 km/h (2 Bft) 0 min 3,6 km/h (1 Bft)
01.03.2010 08:18 12,3 C 4,0 C 0,0 UV-I 0,0 C 54 % 90 % 0 % 1004,4 hPa 0,0 l/m 8,8 km/h (2 Bft) 0 min 7,5 km/h (2 Bft)
01.03.2010 08:20 12,3 C 4,0 C 0,0 UV-I 0,0 C 54 % 90 % 0 % 1004,4 hPa 0,0 l/m 8,8 km/h (2 Bft) 0 min 0,0 km/h (0 Bft)
01.03.2010 08:26 12,3 C 3,9 C 0,0 UV-I 0,0 C 54 % 90 % 0 % 1004,4 hPa 0,0 l/m 7,6 km/h (2 Bft) 0 min 11,1 km/h (2 Bft)
01.03.2010 08:28 12,3 C 4,0 C 0,0 UV-I 0,0 C 54 % 90 % 0 % 1004,4 hPa 0,0 l/m 8,4 km/h (2 Bft) 0 min 13,0 km/h (3 Bft)
01.03.2010 08:30 12,3 C 4,1 C 0,0 UV-I 0,0 C 54 % 90 % 0 % 1004,4 hPa 0,0 l/m 8,8 km/h (2 Bft) 0 min 5,8 km/h (2 Bft)
01.03.2010 08:32 12,3 C 4,1 C 0,0 UV-I 0,0 C 54 % 90 % 0 % 1004,8 hPa 0,0 l/m 9,2 km/h (2 Bft) 0 min 8,4 km/h (2 Bft)
01.03.2010 08:34 12,3 C 4,0 C 0,0 UV-I 0,0 C 54 % 90 % 0 % 1004,8 hPa 0,0 l/m 10,0 km/h (2 Bft) 0 min 5,8 km/h (2 Bft)
01.03.2010 08:36 12,3 C 4,1 C 0,0 UV-I 0,0 C 54 % 90 % 0 % 1004,8 hPa 0,0 l/m 10,0 km/h (2 Bft) 0 min 8,7 km/h (2 Bft)
01.03.2010 08:38 12,5 C 4,0 C 0,0 UV-I 0,0 C 54 % 90 % 0 % 1004,8 hPa 0,0 l/m 9,2 km/h (2 Bft) 0 min 12,0 km/h (2 Bft)
01.03.2010 08:40 12,3 C 4,0 C 0,0 UV-I 0,0 C 54 % 90 % 0 % 1004,8 hPa 0,0 l/m 8,4 km/h (2 Bft) 0 min 12,5 km/h (3 Bft)
01.03.2010 08:42 12,5 C 4,0 C 0,0 UV-I 0,0 C 54 % 90 % 0 % 1004,8 hPa 0,0 l/m 9,6 km/h (2 Bft) 0 min 11,8 km/h (2 Bft)
01.03.2010 08:48 12,3 C 4,1 C 0,0 UV-I 0,0 C 54 % 90 % 0 % 1004,8 hPa 0,0 l/m 8,8 km/h (2 Bft) 0 min 11,3 km/h (2 Bft)
01.03.2010 08:50 12,3 C 4,1 C 0,0 UV-I 0,0 C 54 % 90 % 0 % 1004,8 hPa 0,0 l/m 10,0 km/h (2 Bft) 0 min 10,3 km/h (2 Bft)
01.03.2010 08:52 12,3 C 4,1 C 0,0 UV-I 0,0 C 54 % 90 % 0 % 1005,4 hPa 0,0 l/m 10,4 km/h (2 Bft) 0 min 11,3 km/h (2 Bft)
01.03.2010 08:54 12,3 C 4,1 C 0,0 UV-I 0,0 C 54 % 90 % 0 % 1005,4 hPa 0,0 l/m 9,2 km/h (2 Bft) 0 min 3,8 km/h (1 Bft)
01.03.2010 08:56 12,3 C 4,1 C 0,0 UV-I 0,0 C 54 % 90 % 0 % 1005,4 hPa 0,0 l/m 9,2 km/h (2 Bft) 0 min 7,0 km/h (2 Bft)
01.03.2010 08:58 12,3 C 4,1 C 0,0 UV-I 0,0 C 54 % 90 % 0 % 1005,4 hPa 0,0 l/m 9,6 km/h (2 Bft) 0 min 11,5 km/h (2 Bft)
01.03.2010 09:00 12,3 C 4,2 C 0,0 UV-I 0,0 C 54 % 90 % 0 % 1005,4 hPa 0,0 l/m 8,8 km/h (2 Bft) 0 min 4,6 km/h (1 Bft)
01.03.2010 09:02 12,3 C 4,2 C 0,0 UV-I 0,0 C 54 % 90 % 0 % 1005,4 hPa 0,0 l/m 8,8 km/h (2 Bft) 0 min 12,3 km/h (3 Bft)
01.03.2010 09:06 12,3 C 4,3 C 0,1 UV-I 0,0 C 54 % 90 % 0 % 1005,4 hPa 0,0 l/m 10,4 km/h (2 Bft) 0 min 10,3 km/h (2 Bft)
01.03.2010 09:10 12,3 C 4,2 C 0,2 UV-I 0,0 C 54 % 89 % 0 % 1005,4 hPa 0,0 l/m 11,2 km/h (2 Bft) 0 min 9,4 km/h (2 Bft)
01.03.2010 09:12 12,3 C 4,3 C 0,2 UV-I 0,0 C 54 % 89 % 0 % 1005,5 hPa 0,0 l/m 11,6 km/h (2 Bft) 0 min 4,6 km/h (1 Bft)
01.03.2010 09:14 12,3 C 4,3 C 0,4 UV-I 0,0 C 54 % 89 % 0 % 1005,5 hPa 0,0 l/m 11,6 km/h (2 Bft) 0 min 16,8 km/h (3 Bft)
01.03.2010 09:16 12,3 C 4,3 C 0,4 UV-I 0,0 C 54 % 89 % 0 % 1005,5 hPa 0,0 l/m 11,2 km/h (2 Bft) 0 min 3,1 km/h (1 Bft)
01.03.2010 09:18 12,3 C 4,3 C 0,4 UV-I 0,0 C 54 % 89 % 0 % 1005,5 hPa 0,0 l/m 11,2 km/h (2 Bft) 0 min 9,4 km/h (2 Bft)
01.03.2010 09:20 12,3 C 4,4 C 0,4 UV-I 0,0 C 54 % 89 % 0 % 1005,5 hPa 0,0 l/m 11,2 km/h (2 Bft) 0 min 17,6 km/h (3 Bft)
01.03.2010 09:22 12,3 C 4,4 C 0,4 UV-I 0,0 C 54 % 89 % 0 % 1005,5 hPa 0,0 l/m 11,2 km/h (2 Bft) 0 min 4,3 km/h (1 Bft)
01.03.2010 09:24 12,3 C 4,4 C 0,6 UV-I 0,0 C 54 % 89 % 0 % 1005,5 hPa 0,0 l/m 12,0 km/h (2 Bft) 0 min 14,9 km/h (3 Bft)
01.03.2010 09:26 12,3 C 4,5 C 0,6 UV-I 0,0 C 54 % 89 % 0 % 1005,5 hPa 0,0 l/m 11,2 km/h (2 Bft) 0 min 9,6 km/h (2 Bft)
01.03.2010 09:30 12,5 C 4,4 C 0,3 UV-I 0,0 C 54 % 89 % 0 % 1005,5 hPa 0,0 l/m 10,4 km/h (2 Bft) 0 min 7,7 km/h (2 Bft)
01.03.2010 09:32 12,3 C 4,4 C 0,3 UV-I 0,3 C 54 % 89 % 9 % 1006,2 hPa 0,0 l/m 8,8 km/h (2 Bft) 0 min 5,5 km/h (1 Bft)
01.03.2010 09:34 12,5 C 4,4 C 0,2 UV-I 0,3 C 54 % 89 % 9 % 1006,2 hPa 0,0 l/m 9,2 km/h (2 Bft) 0 min 13,7 km/h (3 Bft)
01.03.2010 09:36 12,5 C 4,4 C 0,2 UV-I 0,1 C 54 % 89 % 3 % 1006,2 hPa 0,0 l/m 8,8 km/h (2 Bft) 0 min 4,1 km/h (1 Bft)
01.03.2010 09:38 12,4 C 4,5 C 0,1 UV-I 0,0 C 54 % 89 % 0 % 1006,2 hPa 0,0 l/m 8,8 km/h (2 Bft) 0 min 13,7 km/h (3 Bft)
01.03.2010 09:40 12,5 C 4,5 C 0,1 UV-I 0,0 C 54 % 89 % 0 % 1006,2 hPa 0,0 l/m 10,4 km/h (2 Bft) 0 min 7,5 km/h (2 Bft)
01.03.2010 09:42 12,5 C 4,5 C 0,1 UV-I 0,0 C 54 % 89 % 0 % 1006,2 hPa 0,0 l/m 10,8 km/h (2 Bft) 0 min 8,4 km/h (2 Bft)
01.03.2010 09:46 12,4 C 4,6 C 0,4 UV-I 0,0 C 54 % 89 % 0 % 1006,2 hPa 0,0 l/m 12,0 km/h (2 Bft) 0 min 14,4 km/h (3 Bft)
01.03.2010 09:48 12,4 C 4,7 C 0,3 UV-I 0,0 C 54 % 88 % 0 % 1006,2 hPa 0,0 l/m 12,4 km/h (3 Bft) 0 min 5,8 km/h (2 Bft)
01.03.2010 09:52 12,4 C 4,7 C 0,3 UV-I 0,0 C 54 % 88 % 0 % 1006,3 hPa 0,0 l/m 11,6 km/h (2 Bft) 0 min 5,5 km/h (1 Bft)
01.03.2010 09:54 12,4 C 4,6 C 0,7 UV-I 0,0 C 54 % 88 % 0 % 1006,3 hPa 0,0 l/m 11,6 km/h (2 Bft) 0 min 4,8 km/h (1 Bft)
01.03.2010 09:56 12,4 C 4,7 C 0,7 UV-I 0,0 C 54 % 88 % 0 % 1006,3 hPa 0,0 l/m 11,2 km/h (2 Bft) 0 min 7,7 km/h (2 Bft)
01.03.2010 09:58 12,4 C 4,7 C 0,6 UV-I 0,1 C 54 % 88 % 3 % 1006,3 hPa 0,0 l/m 10,0 km/h (2 Bft) 0 min 3,4 km/h (1 Bft)
01.03.2010 10:00 12,4 C 4,8 C 0,6 UV-I 0,0 C 54 % 88 % 0 % 1006,3 hPa 0,0 l/m 10,0 km/h (2 Bft) 0 min 8,2 km/h (2 Bft)
01.03.2010 10:02 12,4 C 4,8 C 0,6 UV-I 0,0 C 54 % 88 % 0 % 1006,3 hPa 0,0 l/m 10,0 km/h (2 Bft) 0 min 9,6 km/h (2 Bft)
01.03.2010 10:04 12,4 C 4,9 C 0,7 UV-I 0,1 C 54 % 88 % 3 % 1006,3 hPa 0,0 l/m 9,6 km/h (2 Bft) 0 min 14,0 km/h (3 Bft)
01.03.2010 10:06 12,6 C 4,8 C 0,7 UV-I 0,3 C 54 % 88 % 9 % 1006,3 hPa 0,0 l/m 9,2 km/h (2 Bft) 0 min 5,3 km/h (1 Bft)
01.03.2010 10:08 12,4 C 4,8 C 0,7 UV-I 0,4 C 54 % 88 % 11 % 1006,3 hPa 0,0 l/m 8,8 km/h (2 Bft) 0 min 8,9 km/h (2 Bft)
01.03.2010 10:10 12,4 C 4,9 C 0,7 UV-I 0,0 C 54 % 88 % 0 % 1006,3 hPa 0,0 l/m 10,0 km/h (2 Bft) 0 min 12,0 km/h (2 Bft)
01.03.2010 10:12 12,6 C 4,9 C 0,7 UV-I 0,0 C 54 % 88 % 0 % 1006,5 hPa 0,0 l/m 10,8 km/h (2 Bft) 0 min 8,2 km/h (2 Bft)
01.03.2010 10:16 12,6 C 4,9 C 0,1 UV-I 0,0 C 54 % 87 % 0 % 1006,5 hPa 0,0 l/m 11,6 km/h (2 Bft) 0 min 13,2 km/h (3 Bft)
01.03.2010 10:18 12,6 C 4,9 C 0,0 UV-I 0,0 C 54 % 87 % 0 % 1006,5 hPa 0,0 l/m 11,6 km/h (2 Bft) 0 min 9,1 km/h (2 Bft)
01.03.2010 10:22 12,6 C 4,9 C 0,0 UV-I 0,0 C 54 % 87 % 0 % 1006,5 hPa 0,0 l/m 11,2 km/h (2 Bft) 0 min 14,4 km/h (3 Bft)
01.03.2010 10:24 12,7 C 4,9 C 0,0 UV-I 0,0 C 53 % 87 % 0 % 1006,5 hPa 0,0 l/m 11,2 km/h (2 Bft) 0 min 9,9 km/h (2 Bft)
01.03.2010 10:26 12,6 C 5,0 C 0,0 UV-I 0,0 C 53 % 87 % 0 % 1006,5 hPa 0,0 l/m 11,2 km/h (2 Bft) 0 min 5,5 km/h (1 Bft)
01.03.2010 10:28 12,7 C 5,1 C 0,0 UV-I 0,0 C 53 % 87 % 0 % 1006,5 hPa 0,0 l/m 10,8 km/h (2 Bft) 0 min 4,8 km/h (1 Bft)
01.03.2010 10:30 12,7 C 5,0 C 0,0 UV-I 0,0 C 53 % 87 % 0 % 1006,5 hPa 0,0 l/m 10,4 km/h (2 Bft) 0 min 4,1 km/h (1 Bft)
01.03.2010 10:32 12,7 C 5,0 C 0,0 UV-I 0,0 C 53 % 87 % 0 % 1006,9 hPa 0,0 l/m 10,0 km/h (2 Bft) 0 min 7,0 km/h (2 Bft)
01.03.2010 10:34 12,7 C 5,1 C 0,0 UV-I 0,0 C 53 % 87 % 0 % 1006,9 hPa 0,0 l/m 10,4 km/h (2 Bft) 0 min 11,5 km/h (2 Bft)
01.03.2010 10:38 12,7 C 4,9 C 0,0 UV-I 0,0 C 53 % 87 % 0 % 1006,9 hPa 0,0 l/m 10,4 km/h (2 Bft) 0 min 9,9 km/h (2 Bft)
01.03.2010 10:42 12,6 C 4,9 C 0,0 UV-I 0,0 C 53 % 87 % 0 % 1006,9 hPa 0,0 l/m 10,0 km/h (2 Bft) 0 min 9,1 km/h (2 Bft)
01.03.2010 10:44 12,7 C 5,0 C 0,1 UV-I 0,0 C 53 % 87 % 0 % 1006,9 hPa 0,0 l/m 9,6 km/h (2 Bft) 0 min 6,5 km/h (2 Bft)
01.03.2010 10:46 12,7 C 5,0 C 0,1 UV-I 0,0 C 53 % 87 % 0 % 1006,9 hPa 0,0 l/m 9,2 km/h (2 Bft) 0 min 6,5 km/h (2 Bft)
01.03.2010 10:50 12,7 C 5,0 C 0,1 UV-I 0,0 C 53 % 87 % 0 % 1006,9 hPa 0,0 l/m 9,2 km/h (2 Bft) 0 min 17,6 km/h (3 Bft)
01.03.2010 10:52 12,7 C 5,1 C 0,1 UV-I 0,0 C 53 % 87 % 0 % 1007,6 hPa 0,0 l/m 10,0 km/h (2 Bft) 0 min 9,4 km/h (2 Bft)
01.03.2010 10:54 12,7 C 5,0 C 0,0 UV-I 0,0 C 53 % 87 % 0 % 1007,6 hPa 0,0 l/m 9,6 km/h (2 Bft) 0 min 8,9 km/h (2 Bft)
01.03.2010 10:56 12,7 C 5,0 C 0,0 UV-I 0,0 C 53 % 87 % 0 % 1007,6 hPa 0,0 l/m 9,2 km/h (2 Bft) 0 min 5,1 km/h (1 Bft)
01.03.2010 10:58 12,7 C 4,9 C 0,0 UV-I 0,0 C 53 % 87 % 0 % 1007,6 hPa 0,0 l/m 8,8 km/h (2 Bft) 0 min 6,5 km/h (2 Bft)
01.03.2010 11:00 12,7 C 4,9 C 0,0 UV-I 0,0 C 53 % 87 % 0 % 1007,6 hPa 0,1 l/m 8,8 km/h (2 Bft) 0 min 8,2 km/h (2 Bft)
01.03.2010 11:02 12,7 C 4,9 C 0,0 UV-I 0,0 C 53 % 87 % 0 % 1007,6 hPa 0,0 l/m 8,8 km/h (2 Bft) 0 min 6,5 km/h (2 Bft)
01.03.2010 11:06 12,7 C 4,9 C 0,0 UV-I 0,0 C 53 % 88 % 0 % 1007,6 hPa 0,0 l/m 8,4 km/h (2 Bft) 0 min 6,0 km/h (2 Bft)
01.03.2010 11:12 12,7 C 4,9 C 0,0 UV-I 0,0 C 53 % 88 % 0 % 1007,9 hPa 0,0 l/m 7,2 km/h (2 Bft) 0 min 7,7 km/h (2 Bft)
01.03.2010 11:14 12,7 C 4,9 C 0,0 UV-I 0,0 C 53 % 88 % 0 % 1007,9 hPa 0,0 l/m 7,6 km/h (2 Bft) 0 min 3,4 km/h (1 Bft)
01.03.2010 11:20 12,7 C 4,9 C 0,0 UV-I 0,0 C 53 % 88 % 0 % 1007,9 hPa 0,0 l/m 8,0 km/h (2 Bft) 0 min 7,0 km/h (2 Bft)
01.03.2010 11:24 12,7 C 4,9 C 0,0 UV-I 0,0 C 53 % 88 % 0 % 1007,9 hPa 0,0 l/m 8,0 km/h (2 Bft) 0 min 7,0 km/h (2 Bft)
01.03.2010 11:28 12,6 C 4,9 C 0,3 UV-I 0,0 C 53 % 88 % 0 % 1007,9 hPa 0,0 l/m 7,2 km/h (2 Bft) 0 min 8,2 km/h (2 Bft)
01.03.2010 11:30 12,6 C 5,0 C 0,3 UV-I 0,0 C 53 % 88 % 0 % 1007,9 hPa 0,0 l/m 7,6 km/h (2 Bft) 0 min 6,0 km/h (2 Bft)
01.03.2010 11:32 12,6 C 5,0 C 0,3 UV-I 0,0 C 53 % 88 % 0 % 1008,2 hPa 0,0 l/m 8,0 km/h (2 Bft) 0 min 10,1 km/h (2 Bft)
01.03.2010 11:34 12,6 C 5,1 C 0,3 UV-I 0,0 C 53 % 88 % 0 % 1008,2 hPa 0,0 l/m 7,6 km/h (2 Bft) 0 min 4,1 km/h (1 Bft)
01.03.2010 11:36 12,6 C 5,0 C 0,3 UV-I 0,0 C 53 % 88 % 0 % 1008,2 hPa 0,0 l/m 7,6 km/h (2 Bft) 0 min 4,6 km/h (1 Bft)
01.03.2010 11:38 12,8 C 5,1 C 0,0 UV-I 0,0 C 53 % 88 % 0 % 1008,2 hPa 0,0 l/m 7,6 km/h (2 Bft) 0 min 4,3 km/h (1 Bft)
01.03.2010 11:42 12,8 C 5,1 C 0,0 UV-I 0,0 C 53 % 88 % 0 % 1008,2 hPa 0,0 l/m 6,4 km/h (2 Bft) 0 min 5,1 km/h (1 Bft)
01.03.2010 11:44 12,8 C 5,0 C 0,1 UV-I 0,0 C 53 % 87 % 0 % 1008,2 hPa 0,0 l/m 6,4 km/h (2 Bft) 0 min 3,6 km/h (1 Bft)
01.03.2010 11:48 12,8 C 5,1 C 0,0 UV-I 0,0 C 53 % 88 % 0 % 1008,2 hPa 0,0 l/m 6,8 km/h (2 Bft) 0 min 7,7 km/h (2 Bft)
01.03.2010 11:54 12,8 C 5,1 C 0,0 UV-I 0,0 C 53 % 88 % 0 % 1008,6 hPa 0,0 l/m 7,2 km/h (2 Bft) 0 min 4,3 km/h (1 Bft)
01.03.2010 11:56 12,8 C 5,0 C 0,0 UV-I 0,0 C 53 % 88 % 0 % 1008,6 hPa 0,0 l/m 6,8 km/h (2 Bft) 0 min 4,6 km/h (1 Bft)
01.03.2010 11:58 12,8 C 5,1 C 0,9 UV-I 0,0 C 53 % 88 % 0 % 1008,6 hPa 0,0 l/m 7,2 km/h (2 Bft) 0 min 7,5 km/h (2 Bft)
01.03.2010 12:00 12,8 C 5,1 C 0,9 UV-I 0,0 C 53 % 88 % 0 % 1008,6 hPa 0,0 l/m 6,8 km/h (2 Bft) 0 min 4,1 km/h (1 Bft)
01.03.2010 12:02 12,8 C 5,1 C 0,9 UV-I 0,0 C 53 % 88 % 0 % 1008,6 hPa 0,0 l/m 6,4 km/h (2 Bft) 0 min 7,2 km/h (2 Bft)
01.03.2010 12:08 12,8 C 5,2 C 2,4 UV-I 0,1 C 53 % 87 % 3 % 1008,6 hPa 0,0 l/m 5,6 km/h (1 Bft) 0 min 5,3 km/h (1 Bft)
01.03.2010 12:12 12,8 C 5,3 C 2,4 UV-I 1,0 C 53 % 87 % 29 % 1009,1 hPa 0,0 l/m 6,4 km/h (2 Bft) 0 min 5,1 km/h (1 Bft)
01.03.2010 12:14 12,8 C 5,3 C 2,5 UV-I 1,2 C 53 % 87 % 34 % 1009,1 hPa 0,0 l/m 8,0 km/h (2 Bft) 0 min 12,8 km/h (3 Bft)
01.03.2010 12:18 12,9 C 5,5 C 2,6 UV-I 1,4 C 53 % 87 % 40 % 1009,1 hPa 0,0 l/m 8,8 km/h (2 Bft) 0 min 15,9 km/h (3 Bft)
01.03.2010 12:19 12,9 C 5,4 C 2,6 UV-I 1,7 C 53 % 87 % 49 % 1009,1 hPa 0,0 l/m 8,4 km/h (2 Bft) 0 min 6,7 km/h (2 Bft)
01.03.2010 12:28 12,8 C 5,6 C 0,4 UV-I 1,3 C 53 % 86 % 37 % 1009,1 hPa 0,0 l/m 6,0 km/h (2 Bft) 0 min 8,7 km/h (2 Bft)
01.03.2010 12:32 12,8 C 5,7 C 0,4 UV-I 0,7 C 53 % 84 % 20 % 1009,6 hPa 0,0 l/m 8,0 km/h (2 Bft) 0 min 13,2 km/h (3 Bft)
01.03.2010 12:36 13,0 C 5,6 C 0,0 UV-I 0,3 C 53 % 84 % 9 % 1009,6 hPa 0,0 l/m 8,0 km/h (2 Bft) 0 min 5,5 km/h (1 Bft)
01.03.2010 12:40 13,0 C 5,5 C 0,0 UV-I 0,0 C 53 % 85 % 0 % 1009,6 hPa 0,0 l/m 8,4 km/h (2 Bft) 0 min 4,8 km/h (1 Bft)
01.03.2010 12:42 13,0 C 5,6 C 0,0 UV-I 0,0 C 53 % 85 % 0 % 1009,6 hPa 0,0 l/m 7,6 km/h (2 Bft) 0 min 10,8 km/h (2 Bft)
01.03.2010 12:44 13,0 C 5,5 C 0,2 UV-I 0,0 C 53 % 86 % 0 % 1009,6 hPa 0,0 l/m 6,4 km/h (2 Bft) 0 min 2,6 km/h (1 Bft)
01.03.2010 12:49 13,0 C 5,4 C 0,5 UV-I 0,0 C 53 % 86 % 0 % 1009,6 hPa 0,0 l/m 6,4 km/h (2 Bft) 0 min 6,3 km/h (2 Bft)
01.03.2010 12:54 13,0 C 5,5 C 1,1 UV-I 0,0 C 53 % 86 % 0 % 1009,3 hPa 0,0 l/m 6,0 km/h (2 Bft) 0 min 9,9 km/h (2 Bft)
01.03.2010 12:59 13,0 C 5,5 C 0,8 UV-I 0,0 C 53 % 86 % 0 % 1009,3 hPa 0,0 l/m 6,4 km/h (2 Bft) 0 min 3,4 km/h (1 Bft)
01.03.2010 13:04 13,0 C 5,5 C 0,3 UV-I 0,0 C 53 % 87 % 0 % 1009,3 hPa 0,0 l/m 6,8 km/h (2 Bft) 0 min 4,3 km/h (1 Bft)
01.03.2010 13:09 13,0 C 5,5 C 0,4 UV-I 0,0 C 53 % 86 % 0 % 1009,3 hPa 0,0 l/m 7,2 km/h (2 Bft) 0 min 4,8 km/h (1 Bft)
01.03.2010 13:14 13,0 C 5,6 C 0,3 UV-I 0,0 C 53 % 86 % 0 % 1009,2 hPa 0,0 l/m 7,6 km/h (2 Bft) 0 min 8,2 km/h (2 Bft)
01.03.2010 13:19 13,0 C 5,6 C 0,1 UV-I 0,0 C 53 % 85 % 0 % 1009,2 hPa 0,0 l/m 8,4 km/h (2 Bft) 0 min 4,6 km/h (1 Bft)
01.03.2010 13:24 13,0 C 5,6 C 0,5 UV-I 0,0 C 53 % 85 % 0 % 1009,2 hPa 0,1 l/m 9,2 km/h (2 Bft) 0 min 5,8 km/h (2 Bft)
01.03.2010 13:29 13,0 C 5,6 C 1,6 UV-I 0,4 C 53 % 85 % 11 % 1009,2 hPa 0,0 l/m 6,4 km/h (2 Bft) 0 min 3,8 km/h (1 Bft)
01.03.2010 13:34 13,0 C 5,7 C 1,3 UV-I 0,8 C 53 % 85 % 23 % 1009,3 hPa 0,0 l/m 6,0 km/h (2 Bft) 0 min 4,6 km/h (1 Bft)
01.03.2010 13:39 13,1 C 5,8 C 0,4 UV-I 0,6 C 53 % 84 % 17 % 1009,3 hPa 0,0 l/m 8,4 km/h (2 Bft) 0 min 8,9 km/h (2 Bft)
01.03.2010 13:44 13,1 C 5,9 C 0,0 UV-I 0,3 C 52 % 84 % 9 % 1009,3 hPa 0,0 l/m 8,4 km/h (2 Bft) 0 min 3,1 km/h (1 Bft)
01.03.2010 13:49 13,1 C 5,9 C 0,0 UV-I 0,0 C 52 % 84 % 0 % 1009,3 hPa 0,0 l/m 8,8 km/h (2 Bft) 0 min 3,8 km/h (1 Bft)
01.03.2010 13:54 13,1 C 5,9 C 0,4 UV-I 0,2 C 52 % 84 % 6 % 1009,2 hPa 0,0 l/m 7,2 km/h (2 Bft) 0 min 4,6 km/h (1 Bft)
01.03.2010 13:59 13,1 C 6,0 C 2,9 UV-I 1,4 C 53 % 84 % 40 % 1009,2 hPa 0,0 l/m 6,8 km/h (2 Bft) 0 min 6,7 km/h (2 Bft)
01.03.2010 14:04 13,2 C 6,1 C 2,9 UV-I 1,6 C 53 % 85 % 46 % 1009,2 hPa 0,0 l/m 7,2 km/h (2 Bft) 0 min 4,3 km/h (1 Bft)
01.03.2010 14:08 13,3 C 6,3 C 2,9 UV-I 2,3 C 53 % 83 % 66 % 1009,2 hPa 0,0 l/m 7,2 km/h (2 Bft) 0 min 6,7 km/h (2 Bft)
01.03.2010 14:10 13,3 C 6,3 C 2,9 UV-I 2,4 C 53 % 83 % 69 % 1009,2 hPa 0,0 l/m 7,6 km/h (2 Bft) 0 min 7,2 km/h (2 Bft)
01.03.2010 14:12 13,2 C 6,5 C 2,9 UV-I 2,7 C 53 % 83 % 77 % 1011,2 hPa 0,0 l/m 8,0 km/h (2 Bft) 0 min 11,3 km/h (2 Bft)
01.03.2010 14:14 13,4 C 6,4 C 4,3 UV-I 3,1 C 53 % 83 % 89 % 1011,2 hPa 0,0 l/m 8,4 km/h (2 Bft) 2 min 9,1 km/h (2 Bft)
01.03.2010 14:16 13,4 C 6,5 C 4,3 UV-I 3,1 C 53 % 82 % 89 % 1011,2 hPa 0,0 l/m 8,8 km/h (2 Bft) 2 min 7,2 km/h (2 Bft)
01.03.2010 14:18 13,3 C 6,5 C 1,8 UV-I 3,1 C 53 % 82 % 89 % 1011,2 hPa 0,0 l/m 9,2 km/h (2 Bft) 2 min 4,6 km/h (1 Bft)
01.03.2010 14:20 13,5 C 6,5 C 1,8 UV-I 3,0 C 53 % 82 % 86 % 1011,2 hPa 0,0 l/m 10,0 km/h (2 Bft) 2 min 14,4 km/h (3 Bft)
01.03.2010 14:22 13,5 C 6,5 C 1,8 UV-I 2,6 C 52 % 82 % 74 % 1011,2 hPa 0,0 l/m 10,0 km/h (2 Bft) 0 min 7,5 km/h (2 Bft)
01.03.2010 14:24 13,5 C 6,5 C 0,9 UV-I 2,3 C 52 % 82 % 66 % 1011,2 hPa 0,0 l/m 9,2 km/h (2 Bft) 0 min 4,8 km/h (1 Bft)
01.03.2010 14:26 13,4 C 6,5 C 0,9 UV-I 1,9 C 52 % 81 % 54 % 1011,2 hPa 0,0 l/m 9,2 km/h (2 Bft) 0 min 7,2 km/h (2 Bft)
01.03.2010 14:28 13,6 C 6,6 C 0,6 UV-I 1,6 C 52 % 81 % 46 % 1011,2 hPa 0,0 l/m 9,6 km/h (2 Bft) 0 min 5,1 km/h (1 Bft)
01.03.2010 14:30 13,4 C 6,5 C 0,6 UV-I 1,4 C 52 % 81 % 40 % 1011,2 hPa 0,0 l/m 9,6 km/h (2 Bft) 0 min 8,7 km/h (2 Bft)
01.03.2010 14:32 13,4 C 6,5 C 0,6 UV-I 0,9 C 52 % 80 % 26 % 1010,2 hPa 0,0 l/m 10,8 km/h (2 Bft) 0 min 13,5 km/h (3 Bft)
01.03.2010 14:34 13,6 C 6,5 C 0,5 UV-I 0,8 C 52 % 80 % 23 % 1010,2 hPa 0,0 l/m 10,4 km/h (2 Bft) 0 min 5,8 km/h (2 Bft)
01.03.2010 14:36 13,6 C 6,4 C 0,5 UV-I 0,8 C 52 % 80 % 23 % 1010,2 hPa 0,0 l/m 10,0 km/h (2 Bft) 0 min 2,6 km/h (1 Bft)
01.03.2010 14:38 13,6 C 6,4 C 0,7 UV-I 0,9 C 52 % 80 % 26 % 1010,2 hPa 0,0 l/m 8,8 km/h (2 Bft) 0 min 7,0 km/h (2 Bft)
01.03.2010 14:40 13,6 C 6,4 C 0,7 UV-I 0,7 C 51 % 80 % 20 % 1010,2 hPa 0,0 l/m 9,6 km/h (2 Bft) 0 min 7,5 km/h (2 Bft)
01.03.2010 14:42 13,6 C 6,5 C 0,7 UV-I 0,4 C 51 % 79 % 11 % 1010,2 hPa 0,0 l/m 8,8 km/h (2 Bft) 0 min 12,5 km/h (3 Bft)
01.03.2010 14:44 13,6 C 6,4 C 1,0 UV-I 0,5 C 51 % 79 % 14 % 1010,2 hPa 0,0 l/m 8,4 km/h (2 Bft) 0 min 6,0 km/h (2 Bft)
01.03.2010 14:46 13,6 C 6,5 C 1,0 UV-I 0,3 C 51 % 79 % 9 % 1010,2 hPa 0,0 l/m 8,8 km/h (2 Bft) 0 min 4,8 km/h (1 Bft)
01.03.2010 14:48 13,6 C 6,5 C 1,2 UV-I 0,3 C 51 % 79 % 9 % 1010,2 hPa 0,0 l/m 9,2 km/h (2 Bft) 0 min 9,1 km/h (2 Bft)
01.03.2010 14:50 13,6 C 6,5 C 1,2 UV-I 0,4 C 51 % 79 % 11 % 1010,2 hPa 0,0 l/m 9,2 km/h (2 Bft) 0 min 5,3 km/h (1 Bft)
01.03.2010 14:52 13,6 C 6,5 C 1,2 UV-I 0,4 C 51 % 79 % 11 % 1010,3 hPa 0,0 l/m 8,0 km/h (2 Bft) 0 min 2,4 km/h (1 Bft)
01.03.2010 14:54 13,6 C 6,5 C 1,1 UV-I 0,4 C 51 % 79 % 11 % 1010,3 hPa 0,0 l/m 6,8 km/h (2 Bft) 0 min 5,1 km/h (1 Bft)
01.03.2010 14:56 13,6 C 6,4 C 1,1 UV-I 0,5 C 51 % 79 % 14 % 1010,3 hPa 0,0 l/m 6,4 km/h (2 Bft) 0 min 9,1 km/h (2 Bft)
01.03.2010 14:58 13,6 C 6,5 C 1,0 UV-I 0,4 C 51 % 79 % 11 % 1010,3 hPa 0,0 l/m 7,2 km/h (2 Bft) 0 min 3,8 km/h (1 Bft)
01.03.2010 15:00 13,6 C 6,5 C 1,0 UV-I 0,4 C 51 % 79 % 11 % 1010,3 hPa 0,0 l/m 7,6 km/h (2 Bft) 0 min 5,8 km/h (2 Bft)
01.03.2010 15:02 13,6 C 6,4 C 1,0 UV-I 0,4 C 51 % 79 % 11 % 1010,3 hPa 0,0 l/m 8,0 km/h (2 Bft) 0 min 9,1 km/h (2 Bft)
01.03.2010 15:04 13,6 C 6,5 C 1,0 UV-I 0,3 C 51 % 79 % 9 % 1010,3 hPa 0,0 l/m 8,8 km/h (2 Bft) 0 min 7,9 km/h (2 Bft)
01.03.2010 15:06 13,6 C 6,5 C 1,0 UV-I 0,7 C 51 % 79 % 20 % 1010,3 hPa 0,0 l/m 9,2 km/h (2 Bft) 0 min 5,3 km/h (1 Bft)
01.03.2010 15:08 13,6 C 6,5 C 1,4 UV-I 0,7 C 51 % 79 % 20 % 1010,3 hPa 0,0 l/m 8,4 km/h (2 Bft) 0 min 5,5 km/h (1 Bft)
01.03.2010 15:10 13,6 C 6,5 C 1,4 UV-I 0,5 C 51 % 79 % 14 % 1010,3 hPa 0,0 l/m 7,2 km/h (2 Bft) 0 min 0,0 km/h (0 Bft)
01.03.2010 15:12 13,6 C 6,5 C 1,4 UV-I 0,4 C 51 % 79 % 11 % 1010,4 hPa 0,0 l/m 6,8 km/h (2 Bft) 0 min 3,8 km/h (1 Bft)
01.03.2010 15:14 13,6 C 6,6 C 1,1 UV-I 0,2 C 51 % 79 % 6 % 1010,4 hPa 0,0 l/m 5,2 km/h (1 Bft) 0 min 5,8 km/h (2 Bft)
01.03.2010 15:16 13,6 C 6,5 C 1,1 UV-I 0,4 C 51 % 79 % 11 % 1010,4 hPa 0,0 l/m 4,8 km/h (1 Bft) 0 min 5,5 km/h (1 Bft)
01.03.2010 15:18 13,6 C 6,5 C 0,5 UV-I 0,5 C 51 % 79 % 14 % 1010,4 hPa 0,0 l/m 4,8 km/h (1 Bft) 0 min 2,6 km/h (1 Bft)
01.03.2010 15:20 13,6 C 6,5 C 0,5 UV-I 0,5 C 51 % 79 % 14 % 1010,4 hPa 0,0 l/m 4,8 km/h (1 Bft) 0 min 0,0 km/h (0 Bft)
01.03.2010 15:22 13,6 C 6,5 C 0,5 UV-I 0,4 C 51 % 79 % 11 % 1010,4 hPa 0,0 l/m 4,8 km/h (1 Bft) 0 min 4,3 km/h (1 Bft)
01.03.2010 15:24 13,6 C 6,5 C 0,1 UV-I 0,4 C 51 % 79 % 11 % 1010,4 hPa 0,0 l/m 5,2 km/h (1 Bft) 0 min 4,6 km/h (1 Bft)
01.03.2010 15:26 13,6 C 6,6 C 0,1 UV-I 0,3 C 51 % 79 % 9 % 1010,4 hPa 0,0 l/m 5,2 km/h (1 Bft) 0 min 3,6 km/h (1 Bft)
01.03.2010 15:28 13,6 C 6,7 C 0,1 UV-I 0,1 C 51 % 79 % 3 % 1010,4 hPa 0,0 l/m 4,8 km/h (1 Bft) 0 min 3,1 km/h (1 Bft)
01.03.2010 15:30 13,6 C 6,6 C 0,1 UV-I 0,1 C 51 % 79 % 3 % 1010,4 hPa 0,0 l/m 5,6 km/h (1 Bft) 0 min 4,6 km/h (1 Bft)
01.03.2010 15:32 13,6 C 6,6 C 0,1 UV-I 0,1 C 51 % 79 % 3 % 1010,4 hPa 0,0 l/m 6,8 km/h (2 Bft) 0 min 2,4 km/h (1 Bft)
01.03.2010 15:34 13,6 C 6,7 C 0,0 UV-I 0,0 C 51 % 79 % 0 % 1010,4 hPa 0,0 l/m 6,4 km/h (2 Bft) 0 min 5,5 km/h (1 Bft)
01.03.2010 15:36 13,6 C 6,5 C 0,0 UV-I 0,1 C 51 % 78 % 3 % 1010,4 hPa 0,0 l/m 6,8 km/h (2 Bft) 0 min 6,3 km/h (2 Bft)
01.03.2010 15:38 13,6 C 6,6 C 0,0 UV-I 0,0 C 51 % 78 % 0 % 1010,4 hPa 0,0 l/m 6,0 km/h (2 Bft) 0 min 2,9 km/h (1 Bft)
01.03.2010 15:40 13,6 C 6,5 C 0,0 UV-I 0,0 C 51 % 78 % 0 % 1010,4 hPa 0,0 l/m 5,6 km/h (1 Bft) 0 min 0,0 km/h (0 Bft)
01.03.2010 15:42 13,6 C 6,5 C 0,0 UV-I 0,0 C 51 % 78 % 0 % 1010,4 hPa 0,0 l/m 5,2 km/h (1 Bft) 0 min 4,6 km/h (1 Bft)
01.03.2010 15:44 13,6 C 6,5 C 0,1 UV-I 0,0 C 51 % 78 % 0 % 1010,4 hPa 0,0 l/m 5,2 km/h (1 Bft) 0 min 2,6 km/h (1 Bft)
01.03.2010 15:46 13,6 C 6,7 C 0,1 UV-I 0,0 C 51 % 78 % 0 % 1010,4 hPa 0,0 l/m 4,4 km/h (1 Bft) 0 min 3,4 km/h (1 Bft)
01.03.2010 15:48 13,6 C 6,5 C 0,1 UV-I 0,0 C 51 % 78 % 0 % 1010,4 hPa 0,0 l/m 4,0 km/h (1 Bft) 0 min 3,6 km/h (1 Bft)
01.03.2010 15:50 13,4 C 6,5 C 0,1 UV-I 0,0 C 51 % 79 % 0 % 1010,4 hPa 0,0 l/m 4,0 km/h (1 Bft) 0 min 4,6 km/h (1 Bft)
01.03.2010 15:52 13,4 C 6,5 C 0,1 UV-I 0,0 C 51 % 78 % 0 % 1010,6 hPa 0,0 l/m 4,0 km/h (1 Bft) 0 min 6,0 km/h (2 Bft)
01.03.2010 15:54 13,4 C 6,5 C 0,2 UV-I 0,0 C 51 % 78 % 0 % 1010,6 hPa 0,0 l/m 4,4 km/h (1 Bft) 0 min 4,3 km/h (1 Bft)
01.03.2010 15:56 13,4 C 6,5 C 0,2 UV-I 0,0 C 51 % 78 % 0 % 1010,6 hPa 0,0 l/m 3,6 km/h (1 Bft) 0 min 2,4 km/h (1 Bft)
01.03.2010 15:58 13,4 C 6,5 C 0,5 UV-I 0,0 C 51 % 78 % 0 % 1010,6 hPa 0,0 l/m 4,0 km/h (1 Bft) 0 min 2,9 km/h (1 Bft)
01.03.2010 16:00 13,4 C 6,6 C 0,5 UV-I 0,0 C 51 % 78 % 0 % 1010,6 hPa 0,0 l/m 3,6 km/h (1 Bft) 0 min 0,0 km/h (0 Bft)
01.03.2010 16:02 13,6 C 6,7 C 0,5 UV-I 0,0 C 51 % 78 % 0 % 1010,6 hPa 0,0 l/m 4,0 km/h (1 Bft) 0 min 3,8 km/h (1 Bft)
01.03.2010 16:04 13,6 C 6,7 C 0,8 UV-I 0,6 C 51 % 78 % 17 % 1010,6 hPa 0,0 l/m 3,2 km/h (1 Bft) 0 min 3,4 km/h (1 Bft)
01.03.2010 16:06 13,6 C 6,7 C 0,8 UV-I 1,1 C 51 % 78 % 31 % 1010,6 hPa 0,0 l/m 4,8 km/h (1 Bft) 0 min 11,8 km/h (2 Bft)
01.03.2010 16:08 13,6 C 6,7 C 1,2 UV-I 1,3 C 51 % 77 % 37 % 1010,6 hPa 0,0 l/m 5,2 km/h (1 Bft) 0 min 2,6 km/h (1 Bft)
01.03.2010 16:10 13,6 C 6,7 C 1,2 UV-I 1,3 C 51 % 77 % 37 % 1010,6 hPa 0,0 l/m 5,6 km/h (1 Bft) 0 min 5,8 km/h (2 Bft)
01.03.2010 16:12 13,6 C 6,8 C 1,2 UV-I 1,2 C 51 % 77 % 34 % 1010,9 hPa 0,0 l/m 5,6 km/h (1 Bft) 0 min 7,0 km/h (2 Bft)
01.03.2010 16:14 13,6 C 6,8 C 1,1 UV-I 1,1 C 51 % 77 % 31 % 1010,9 hPa 0,0 l/m 5,6 km/h (1 Bft) 0 min 3,1 km/h (1 Bft)
01.03.2010 16:16 13,6 C 6,9 C 1,1 UV-I 0,9 C 51 % 77 % 26 % 1010,9 hPa 0,0 l/m 5,6 km/h (1 Bft) 0 min 9,9 km/h (2 Bft)
01.03.2010 16:18 13,6 C 6,8 C 1,1 UV-I 0,9 C 51 % 76 % 26 % 1010,9 hPa 0,0 l/m 5,6 km/h (1 Bft) 0 min 4,6 km/h (1 Bft)
01.03.2010 16:20 13,6 C 6,8 C 1,1 UV-I 1,1 C 51 % 75 % 31 % 1010,9 hPa 0,0 l/m 6,8 km/h (2 Bft) 0 min 7,7 km/h (2 Bft)
01.03.2010 16:22 13,6 C 7,0 C 1,1 UV-I 1,4 C 51 % 75 % 40 % 1010,9 hPa 0,0 l/m 7,2 km/h (2 Bft) 0 min 2,6 km/h (1 Bft)
01.03.2010 16:24 13,7 C 7,1 C 1,0 UV-I 1,9 C 50 % 75 % 54 % 1010,9 hPa 0,0 l/m 6,8 km/h (2 Bft) 0 min 3,1 km/h (1 Bft)
01.03.2010 16:26 13,6 C 7,1 C 1,0 UV-I 2,6 C 50 % 76 % 74 % 1010,9 hPa 0,0 l/m 7,2 km/h (2 Bft) 2 min 7,9 km/h (2 Bft)
01.03.2010 16:28 13,8 C 7,3 C 0,8 UV-I 3,0 C 50 % 76 % 86 % 1010,9 hPa 0,0 l/m 7,2 km/h (2 Bft) 2 min 7,0 km/h (2 Bft)
01.03.2010 16:30 13,8 C 7,2 C 0,8 UV-I 3,3 C 50 % 76 % 94 % 1010,9 hPa 0,0 l/m 7,6 km/h (2 Bft) 2 min 9,1 km/h (2 Bft)
01.03.2010 16:32 13,8 C 7,3 C 0,8 UV-I 3,1 C 50 % 76 % 89 % 1011,4 hPa 0,0 l/m 7,6 km/h (2 Bft) 2 min 3,4 km/h (1 Bft)
01.03.2010 16:34 13,9 C 7,2 C 0,5 UV-I 2,8 C 50 % 76 % 80 % 1011,4 hPa 0,0 l/m 8,8 km/h (2 Bft) 2 min 11,5 km/h (2 Bft)
01.03.2010 16:36 13,9 C 7,1 C 0,5 UV-I 2,3 C 50 % 77 % 66 % 1011,4 hPa 0,0 l/m 10,0 km/h (2 Bft) 2 min 3,6 km/h (1 Bft)
01.03.2010 16:38 13,9 C 6,9 C 0,1 UV-I 1,6 C 50 % 77 % 46 % 1011,4 hPa 0,0 l/m 10,8 km/h (2 Bft) 0 min 7,7 km/h (2 Bft)
01.03.2010 16:40 13,9 C 6,8 C 0,1 UV-I 1,3 C 50 % 77 % 37 % 1011,4 hPa 0,0 l/m 10,4 km/h (2 Bft) 0 min 3,8 km/h (1 Bft)
01.03.2010 16:42 13,8 C 6,8 C 0,1 UV-I 0,9 C 50 % 77 % 26 % 1011,4 hPa 0,0 l/m 9,6 km/h (2 Bft) 0 min 6,3 km/h (2 Bft)
01.03.2010 16:44 13,8 C 6,8 C 0,1 UV-I 0,6 C 50 % 78 % 17 % 1011,4 hPa 0,0 l/m 9,2 km/h (2 Bft) 0 min 6,7 km/h (2 Bft)
01.03.2010 16:46 13,8 C 6,8 C 0,1 UV-I 0,5 C 50 % 78 % 14 % 1011,4 hPa 0,0 l/m 8,4 km/h (2 Bft) 0 min 4,1 km/h (1 Bft)
01.03.2010 16:48 13,8 C 6,7 C 0,1 UV-I 0,3 C 50 % 78 % 9 % 1011,4 hPa 0,0 l/m 8,0 km/h (2 Bft) 0 min 7,9 km/h (2 Bft)
01.03.2010 16:50 13,8 C 6,7 C 0,1 UV-I 0,1 C 50 % 78 % 3 % 1011,4 hPa 0,0 l/m 7,6 km/h (2 Bft) 0 min 6,0 km/h (2 Bft)
01.03.2010 16:52 13,9 C 6,7 C 0,1 UV-I 0,0 C 50 % 79 % 0 % 1011,6 hPa 0,0 l/m 7,6 km/h (2 Bft) 0 min 4,3 km/h (1 Bft)
01.03.2010 16:54 13,8 C 6,6 C 0,0 UV-I 0,0 C 50 % 78 % 0 % 1011,6 hPa 0,0 l/m 8,0 km/h (2 Bft) 0 min 4,3 km/h (1 Bft)
01.03.2010 16:56 13,9 C 6,6 C 0,0 UV-I 0,0 C 50 % 79 % 0 % 1011,6 hPa 0,0 l/m 8,4 km/h (2 Bft) 0 min 5,8 km/h (2 Bft)
01.03.2010 16:58 13,9 C 6,7 C 0,0 UV-I 0,0 C 50 % 79 % 0 % 1011,6 hPa 0,0 l/m 8,4 km/h (2 Bft) 0 min 6,0 km/h (2 Bft)
01.03.2010 17:00 13,9 C 6,6 C 0,0 UV-I 0,0 C 50 % 79 % 0 % 1011,6 hPa 0,0 l/m 7,6 km/h (2 Bft) 0 min 3,4 km/h (1 Bft)
01.03.2010 17:02 13,8 C 6,6 C 0,0 UV-I 0,0 C 50 % 79 % 0 % 1011,6 hPa 0,0 l/m 7,6 km/h (2 Bft) 0 min 11,3 km/h (2 Bft)
01.03.2010 17:04 13,9 C 6,5 C 0,0 UV-I 0,0 C 50 % 79 % 0 % 1011,6 hPa 0,0 l/m 7,2 km/h (2 Bft) 0 min 4,1 km/h (1 Bft)
01.03.2010 17:06 13,8 C 6,5 C 0,0 UV-I 0,0 C 50 % 79 % 0 % 1011,6 hPa 0,0 l/m 6,0 km/h (2 Bft) 0 min 4,1 km/h (1 Bft)
01.03.2010 17:08 13,8 C 6,5 C 0,0 UV-I 0,0 C 50 % 79 % 0 % 1011,6 hPa 0,0 l/m 5,6 km/h (1 Bft) 0 min 6,0 km/h (2 Bft)
01.03.2010 17:10 13,8 C 6,5 C 0,0 UV-I 0,0 C 50 % 79 % 0 % 1011,6 hPa 0,0 l/m 5,6 km/h (1 Bft) 0 min 4,3 km/h (1 Bft)
01.03.2010 17:12 13,8 C 6,5 C 0,0 UV-I 0,0 C 50 % 79 % 0 % 1010,9 hPa 0,0 l/m 5,6 km/h (1 Bft) 0 min 3,6 km/h (1 Bft)
01.03.2010 17:14 13,8 C 6,5 C 0,0 UV-I 0,0 C 50 % 79 % 0 % 1010,9 hPa 0,0 l/m 4,8 km/h (1 Bft) 0 min 2,6 km/h (1 Bft)
01.03.2010 17:16 13,8 C 6,4 C 0,0 UV-I 0,0 C 50 % 79 % 0 % 1010,9 hPa 0,0 l/m 4,0 km/h (1 Bft) 0 min 4,1 km/h (1 Bft)
01.03.2010 17:18 13,8 C 6,5 C 0,0 UV-I 0,0 C 50 % 79 % 0 % 1010,9 hPa 0,0 l/m 5,2 km/h (1 Bft) 0 min 6,7 km/h (2 Bft)
01.03.2010 17:20 13,8 C 6,5 C 0,0 UV-I 0,0 C 50 % 79 % 0 % 1010,9 hPa 0,0 l/m 4,8 km/h (1 Bft) 0 min 0,0 km/h (0 Bft)
01.03.2010 17:22 13,8 C 6,4 C 0,0 UV-I 0,0 C 50 % 79 % 0 % 1010,9 hPa 0,0 l/m 4,8 km/h (1 Bft) 0 min 3,1 km/h (1 Bft)
01.03.2010 17:24 13,8 C 6,4 C 0,0 UV-I 0,0 C 50 % 79 % 0 % 1010,9 hPa 0,0 l/m 5,2 km/h (1 Bft) 0 min 2,6 km/h (1 Bft)
01.03.2010 17:26 13,6 C 6,4 C 0,0 UV-I 0,0 C 50 % 79 % 0 % 1010,9 hPa 0,0 l/m 5,2 km/h (1 Bft) 0 min 4,8 km/h (1 Bft)
01.03.2010 17:28 13,6 C 6,4 C 0,0 UV-I 0,0 C 50 % 79 % 0 % 1010,9 hPa 0,0 l/m 6,0 km/h (2 Bft) 0 min 2,6 km/h (1 Bft)
01.03.2010 17:30 13,6 C 6,5 C 0,0 UV-I 0,0 C 50 % 79 % 0 % 1010,9 hPa 0,0 l/m 5,2 km/h (1 Bft) 0 min 4,1 km/h (1 Bft)
01.03.2010 17:32 13,7 C 6,5 C 0,0 UV-I 0,0 C 50 % 79 % 0 % 1011,4 hPa 0,0 l/m 4,8 km/h (1 Bft) 0 min 5,5 km/h (1 Bft)
01.03.2010 17:34 13,7 C 6,4 C 0,0 UV-I 0,0 C 50 % 79 % 0 % 1011,4 hPa 0,0 l/m 4,8 km/h (1 Bft) 0 min 2,9 km/h (1 Bft)
01.03.2010 17:36 13,6 C 6,4 C 0,0 UV-I 0,0 C 50 % 79 % 0 % 1011,4 hPa 0,0 l/m 4,8 km/h (1 Bft) 0 min 6,5 km/h (2 Bft)
01.03.2010 17:38 13,6 C 6,3 C 0,0 UV-I 0,0 C 50 % 79 % 0 % 1011,4 hPa 0,0 l/m 4,0 km/h (1 Bft) 0 min 5,1 km/h (1 Bft)
01.03.2010 17:40 13,6 C 6,2 C 0,0 UV-I 0,0 C 50 % 79 % 0 % 1011,4 hPa 0,0 l/m 4,4 km/h (1 Bft) 0 min 4,8 km/h (1 Bft)
01.03.2010 17:42 13,6 C 6,3 C 0,0 UV-I 0,0 C 50 % 79 % 0 % 1011,4 hPa 0,0 l/m 4,8 km/h (1 Bft) 0 min 5,1 km/h (1 Bft)
01.03.2010 17:44 13,6 C 6,3 C 0,0 UV-I 0,0 C 50 % 80 % 0 % 1011,4 hPa 0,0 l/m 4,8 km/h (1 Bft) 0 min 4,8 km/h (1 Bft)
01.03.2010 17:46 13,6 C 6,3 C 0,0 UV-I 0,0 C 50 % 80 % 0 % 1011,4 hPa 0,0 l/m 4,4 km/h (1 Bft) 0 min 0,0 km/h (0 Bft)
01.03.2010 17:48 13,6 C 6,3 C 0,0 UV-I 0,0 C 50 % 80 % 0 % 1011,4 hPa 0,0 l/m 4,0 km/h (1 Bft) 0 min 3,6 km/h (1 Bft)
01.03.2010 17:50 13,6 C 6,3 C 0,0 UV-I 0,0 C 50 % 80 % 0 % 1011,4 hPa 0,0 l/m 3,6 km/h (1 Bft) 0 min 0,0 km/h (0 Bft)
01.03.2010 17:52 13,6 C 6,3 C 0,0 UV-I 0,0 C 50 % 80 % 0 % 1011,6 hPa 0,0 l/m 3,2 km/h (1 Bft) 0 min 0,0 km/h (0 Bft)
01.03.2010 17:54 13,6 C 6,2 C 0,0 UV-I 0,0 C 50 % 80 % 0 % 1011,6 hPa 0,0 l/m 2,4 km/h (1 Bft) 0 min 4,1 km/h (1 Bft)
01.03.2010 17:56 13,4 C 6,1 C 0,0 UV-I 0,0 C 50 % 80 % 0 % 1011,6 hPa 0,0 l/m 2,0 km/h (1 Bft) 0 min 0,0 km/h (0 Bft)
01.03.2010 17:58 13,4 C 6,1 C 0,0 UV-I 0,0 C 50 % 80 % 0 % 1011,6 hPa 0,0 l/m 2,4 km/h (1 Bft) 0 min 4,3 km/h (1 Bft)
01.03.2010 18:00 13,4 C 6,1 C 0,0 UV-I 0,0 C 50 % 80 % 0 % 1011,6 hPa 0,0 l/m 2,8 km/h (1 Bft) 0 min 3,4 km/h (1 Bft)
01.03.2010 18:02 13,4 C 6,0 C 0,0 UV-I 0,0 C 50 % 80 % 0 % 1011,6 hPa 0,0 l/m 2,8 km/h (1 Bft) 0 min 5,3 km/h (1 Bft)
01.03.2010 18:04 13,5 C 6,1 C 0,0 UV-I 0,0 C 50 % 80 % 0 % 1011,6 hPa 0,0 l/m 3,2 km/h (1 Bft) 0 min 2,4 km/h (1 Bft)
01.03.2010 18:06 13,5 C 6,0 C 0,0 UV-I 0,0 C 50 % 80 % 0 % 1011,6 hPa 0,0 l/m 2,8 km/h (1 Bft) 0 min 0,0 km/h (0 Bft)
01.03.2010 18:08 13,5 C 6,0 C 0,0 UV-I 0,0 C 50 % 80 % 0 % 1011,6 hPa 0,0 l/m 2,8 km/h (1 Bft) 0 min 0,0 km/h (0 Bft)
01.03.2010 18:10 13,3 C 6,0 C 0,0 UV-I 0,0 C 50 % 80 % 0 % 1011,6 hPa 0,0 l/m 2,8 km/h (1 Bft) 0 min 0,0 km/h (0 Bft)
01.03.2010 18:12 13,3 C 5,9 C 0,0 UV-I 0,0 C 51 % 80 % 0 % 1011,2 hPa 0,0 l/m 1,6 km/h (1 Bft) 0 min 0,0 km/h (0 Bft)
01.03.2010 18:14 13,3 C 5,9 C 0,0 UV-I 0,0 C 51 % 80 % 0 % 1011,2 hPa 0,0 l/m 2,0 km/h (1 Bft) 0 min 2,9 km/h (1 Bft)
01.03.2010 18:16 13,4 C 5,9 C 0,0 UV-I 0,0 C 51 % 81 % 0 % 1011,2 hPa 0,0 l/m 1,2 km/h (1 Bft) 0 min 0,0 km/h (0 Bft)
01.03.2010 18:18 13,4 C 5,8 C 0,0 UV-I 0,0 C 51 % 81 % 0 % 1011,2 hPa 0,0 l/m 2,0 km/h (1 Bft) 0 min 4,6 km/h (1 Bft)
01.03.2010 18:20 13,4 C 5,9 C 0,0 UV-I 0,0 C 51 % 81 % 0 % 1011,2 hPa 0,0 l/m 2,4 km/h (1 Bft) 0 min 3,4 km/h (1 Bft)
01.03.2010 18:22 13,4 C 5,9 C 0,0 UV-I 0,0 C 51 % 81 % 0 % 1011,2 hPa 0,0 l/m 2,8 km/h (1 Bft) 0 min 3,1 km/h (1 Bft)
01.03.2010 18:24 13,4 C 5,9 C 0,0 UV-I 0,0 C 51 % 81 % 0 % 1011,2 hPa 0,0 l/m 2,8 km/h (1 Bft) 0 min 0,0 km/h (0 Bft)
01.03.2010 18:26 13,4 C 5,9 C 0,0 UV-I 0,0 C 51 % 81 % 0 % 1011,2 hPa 0,0 l/m 3,2 km/h (1 Bft) 0 min 4,8 km/h (1 Bft)
01.03.2010 18:28 13,4 C 5,9 C 0,0 UV-I 0,0 C 51 % 81 % 0 % 1011,2 hPa 0,0 l/m 3,2 km/h (1 Bft) 0 min 3,8 km/h (1 Bft)
01.03.2010 18:30 13,4 C 5,8 C 0,0 UV-I 0,0 C 51 % 81 % 0 % 1011,2 hPa 0,0 l/m 3,2 km/h (1 Bft) 0 min 4,1 km/h (1 Bft)
01.03.2010 18:32 13,2 C 5,8 C 0,0 UV-I 0,0 C 51 % 81 % 0 % 1011,8 hPa 0,0 l/m 3,2 km/h (1 Bft) 0 min 2,9 km/h (1 Bft)
01.03.2010 18:34 13,2 C 5,7 C 0,0 UV-I 0,0 C 51 % 81 % 0 % 1011,8 hPa 0,0 l/m 3,2 km/h (1 Bft) 0 min 4,1 km/h (1 Bft)
01.03.2010 18:36 13,2 C 5,7 C 0,0 UV-I 0,0 C 51 % 81 % 0 % 1011,8 hPa 0,0 l/m 4,0 km/h (1 Bft) 0 min 5,1 km/h (1 Bft)
01.03.2010 18:38 13,3 C 5,7 C 0,0 UV-I 0,0 C 51 % 81 % 0 % 1011,8 hPa 0,0 l/m 4,0 km/h (1 Bft) 0 min 0,0 km/h (0 Bft)
01.03.2010 18:40 13,3 C 5,7 C 0,0 UV-I 0,0 C 51 % 81 % 0 % 1011,8 hPa 0,0 l/m 4,0 km/h (1 Bft) 0 min 2,4 km/h (1 Bft)
01.03.2010 18:42 13,3 C 5,7 C 0,0 UV-I 0,0 C 51 % 81 % 0 % 1011,8 hPa 0,0 l/m 3,6 km/h (1 Bft) 0 min 0,0 km/h (0 Bft)
01.03.2010 18:44 13,1 C 5,6 C 0,0 UV-I 0,0 C 51 % 81 % 0 % 1011,8 hPa 0,0 l/m 3,6 km/h (1 Bft) 0 min 2,4 km/h (1 Bft)
01.03.2010 18:46 13,1 C 5,6 C 0,0 UV-I 0,0 C 51 % 81 % 0 % 1011,8 hPa 0,0 l/m 3,2 km/h (1 Bft) 0 min 2,6 km/h (1 Bft)
01.03.2010 18:48 13,1 C 5,6 C 0,0 UV-I 0,0 C 51 % 81 % 0 % 1011,8 hPa 0,0 l/m 2,4 km/h (1 Bft) 0 min 0,0 km/h (0 Bft)
01.03.2010 18:50 13,1 C 5,6 C 0,0 UV-I 0,0 C 51 % 81 % 0 % 1011,8 hPa 0,0 l/m 2,0 km/h (1 Bft) 0 min 0,0 km/h (0 Bft)
01.03.2010 18:52 13,1 C 5,6 C 0,0 UV-I 0,0 C 51 % 82 % 0 % 1012,1 hPa 0,0 l/m 1,6 km/h (1 Bft) 0 min 3,8 km/h (1 Bft)
01.03.2010 18:54 13,2 C 5,7 C 0,0 UV-I 0,0 C 51 % 82 % 0 % 1012,1 hPa 0,0 l/m 1,6 km/h (1 Bft) 0 min 3,6 km/h (1 Bft)
01.03.2010 18:56 13,1 C 5,6 C 0,0 UV-I 0,0 C 51 % 82 % 0 % 1012,1 hPa 0,0 l/m 1,2 km/h (1 Bft) 0 min 2,4 km/h (1 Bft)
01.03.2010 18:58 13,1 C 5,6 C 0,0 UV-I 0,0 C 51 % 82 % 0 % 1012,1 hPa 0,0 l/m 1,6 km/h (1 Bft) 0 min 2,9 km/h (1 Bft)
01.03.2010 19:00 13,2 C 5,6 C 0,0 UV-I 0,0 C 51 % 82 % 0 % 1012,1 hPa 0,0 l/m 2,0 km/h (1 Bft) 0 min 4,8 km/h (1 Bft)
01.03.2010 19:02 13,2 C 5,5 C 0,0 UV-I 0,0 C 51 % 82 % 0 % 1012,1 hPa 0,0 l/m 2,8 km/h (1 Bft) 0 min 3,4 km/h (1 Bft)
01.03.2010 19:04 13,2 C 5,5 C 0,0 UV-I 0,0 C 51 % 82 % 0 % 1012,1 hPa 0,0 l/m 2,8 km/h (1 Bft) 0 min 4,3 km/h (1 Bft)
01.03.2010 19:06 13,2 C 5,5 C 0,0 UV-I 0,0 C 51 % 82 % 0 % 1012,1 hPa 0,0 l/m 2,4 km/h (1 Bft) 0 min 5,1 km/h (1 Bft)
01.03.2010 19:08 13,2 C 5,5 C 0,0 UV-I 0,0 C 51 % 82 % 0 % 1012,1 hPa 0,0 l/m 2,8 km/h (1 Bft) 0 min 4,6 km/h (1 Bft)
01.03.2010 19:10 13,2 C 5,5 C 0,0 UV-I 0,0 C 51 % 82 % 0 % 1012,1 hPa 0,0 l/m 2,8 km/h (1 Bft) 0 min 2,6 km/h (1 Bft)
01.03.2010 19:12 13,2 C 5,5 C 0,0 UV-I 0,0 C 51 % 82 % 0 % 1012,3 hPa 0,0 l/m 2,8 km/h (1 Bft) 0 min 6,7 km/h (2 Bft)
01.03.2010 19:14 13,2 C 5,4 C 0,0 UV-I 0,0 C 51 % 82 % 0 % 1012,3 hPa 0,0 l/m 2,8 km/h (1 Bft) 0 min 3,1 km/h (1 Bft)
01.03.2010 19:16 13,2 C 5,5 C 0,0 UV-I 0,0 C 51 % 82 % 0 % 1012,3 hPa 0,0 l/m 3,6 km/h (1 Bft) 0 min 3,8 km/h (1 Bft)
01.03.2010 19:18 13,2 C 5,5 C 0,0 UV-I 0,0 C 51 % 82 % 0 % 1012,3 hPa 0,0 l/m 3,6 km/h (1 Bft) 0 min 3,8 km/h (1 Bft)
01.03.2010 19:20 13,2 C 5,5 C 0,0 UV-I 0,0 C 51 % 83 % 0 % 1012,3 hPa 0,0 l/m 3,6 km/h (1 Bft) 0 min 3,8 km/h (1 Bft)
01.03.2010 19:22 13,1 C 5,5 C 0,0 UV-I 0,0 C 51 % 83 % 0 % 1012,3 hPa 0,0 l/m 3,6 km/h (1 Bft) 0 min 2,4 km/h (1 Bft)
01.03.2010 19:24 13,2 C 5,4 C 0,0 UV-I 0,0 C 51 % 82 % 0 % 1012,3 hPa 0,0 l/m 4,0 km/h (1 Bft) 0 min 3,1 km/h (1 Bft)
01.03.2010 19:26 13,1 C 5,3 C 0,0 UV-I 0,0 C 51 % 82 % 0 % 1012,3 hPa 0,0 l/m 3,6 km/h (1 Bft) 0 min 0,0 km/h (0 Bft)
01.03.2010 19:28 13,2 C 5,3 C 0,0 UV-I 0,0 C 51 % 82 % 0 % 1012,3 hPa 0,0 l/m 3,6 km/h (1 Bft) 0 min 4,3 km/h (1 Bft)
01.03.2010 19:30 13,1 C 5,3 C 0,0 UV-I 0,0 C 51 % 82 % 0 % 1012,3 hPa 0,0 l/m 2,8 km/h (1 Bft) 0 min 0,0 km/h (0 Bft)
01.03.2010 19:32 13,1 C 5,3 C 0,0 UV-I 0,0 C 51 % 82 % 0 % 1012,8 hPa 0,0 l/m 2,8 km/h (1 Bft) 0 min 0,0 km/h (0 Bft)
01.03.2010 19:34 13,1 C 5,3 C 0,0 UV-I 0,0 C 51 % 82 % 0 % 1012,8 hPa 0,0 l/m 2,8 km/h (1 Bft) 0 min 2,4 km/h (1 Bft)
01.03.2010 19:36 13,1 C 5,2 C 0,0 UV-I 0,0 C 51 % 82 % 0 % 1012,8 hPa 0,0 l/m 2,4 km/h (1 Bft) 0 min 3,8 km/h (1 Bft)
01.03.2010 19:38 13,1 C 5,2 C 0,0 UV-I 0,0 C 51 % 82 % 0 % 1012,8 hPa 0,0 l/m 2,0 km/h (1 Bft) 0 min 0,0 km/h (0 Bft)
01.03.2010 19:40 13,1 C 5,3 C 0,0 UV-I 0,0 C 51 % 82 % 0 % 1012,8 hPa 0,0 l/m 1,6 km/h (1 Bft) 0 min 0,0 km/h (0 Bft)
01.03.2010 19:42 13,1 C 5,2 C 0,0 UV-I 0,0 C 51 % 83 % 0 % 1012,8 hPa 0,0 l/m 1,6 km/h (1 Bft) 0 min 0,0 km/h (0 Bft)
01.03.2010 19:44 13,1 C 5,2 C 0,0 UV-I 0,0 C 51 % 83 % 0 % 1012,8 hPa 0,0 l/m 1,2 km/h (1 Bft) 0 min 3,8 km/h (1 Bft)
01.03.2010 19:46 13,1 C 5,2 C 0,0 UV-I 0,0 C 51 % 83 % 0 % 1012,8 hPa 0,0 l/m 0,8 km/h (0 Bft) 0 min 0,0 km/h (0 Bft)
01.03.2010 19:48 13,1 C 5,1 C 0,0 UV-I 0,0 C 51 % 83 % 0 % 1012,8 hPa 0,0 l/m 0,8 km/h (0 Bft) 0 min 0,0 km/h (0 Bft)
01.03.2010 19:50 13,1 C 5,1 C 0,0 UV-I 0,0 C 51 % 83 % 0 % 1012,8 hPa 0,0 l/m 0,8 km/h (0 Bft) 0 min 0,0 km/h (0 Bft)
01.03.2010 19:52 13,1 C 5,0 C 0,0 UV-I 0,0 C 51 % 83 % 0 % 1012,8 hPa 0,0 l/m 0,8 km/h (0 Bft) 0 min 0,0 km/h (0 Bft)
01.03.2010 19:54 13,1 C 5,1 C 0,0 UV-I 0,0 C 51 % 83 % 0 % 1012,8 hPa 0,0 l/m 0,8 km/h (0 Bft) 0 min 0,0 km/h (0 Bft)
01.03.2010 19:56 13,1 C 5,1 C 0,0 UV-I 0,0 C 51 % 83 % 0 % 1012,8 hPa 0,0 l/m 0,4 km/h (0 Bft) 0 min 0,0 km/h (0 Bft)
01.03.2010 19:58 13,1 C 5,0 C 0,0 UV-I 0,0 C 51 % 83 % 0 % 1012,8 hPa 0,0 l/m 0,4 km/h (0 Bft) 0 min 0,0 km/h (0 Bft)
01.03.2010 20:00 13,1 C 4,9 C 0,0 UV-I 0,0 C 51 % 83 % 0 % 1012,8 hPa 0,0 l/m 0,0 km/h (0 Bft) 0 min 0,0 km/h (0 Bft)
01.03.2010 20:02 13,1 C 4,9 C 0,0 UV-I 0,0 C 51 % 83 % 0 % 1012,8 hPa 0,0 l/m 0,0 km/h (0 Bft) 0 min 0,0 km/h (0 Bft)
01.03.2010 20:04 13,1 C 4,8 C 0,0 UV-I 0,0 C 51 % 83 % 0 % 1012,8 hPa 0,0 l/m 0,0 km/h (0 Bft) 0 min 2,6 km/h (1 Bft)
01.03.2010 20:06 12,9 C 4,8 C 0,0 UV-I 0,0 C 51 % 83 % 0 % 1012,8 hPa 0,0 l/m 0,4 km/h (0 Bft) 0 min 2,6 km/h (1 Bft)
01.03.2010 20:08 12,9 C 4,8 C 0,0 UV-I 0,0 C 51 % 83 % 0 % 1012,8 hPa 0,0 l/m 0,4 km/h (0 Bft) 0 min 0,0 km/h (0 Bft)
01.03.2010 20:10 13,1 C 4,9 C 0,0 UV-I 0,0 C 51 % 83 % 0 % 1012,8 hPa 0,0 l/m 0,4 km/h (0 Bft) 0 min 0,0 km/h (0 Bft)
01.03.2010 20:12 12,9 C 4,8 C 0,0 UV-I 0,0 C 51 % 83 % 0 % 1012,9 hPa 0,0 l/m 0,4 km/h (0 Bft) 0 min 0,0 km/h (0 Bft)
01.03.2010 20:14 13,1 C 4,8 C 0,0 UV-I 0,0 C 51 % 83 % 0 % 1012,9 hPa 0,0 l/m 0,8 km/h (0 Bft) 0 min 0,0 km/h (0 Bft)
01.03.2010 20:16 12,9 C 4,7 C 0,0 UV-I 0,0 C 51 % 83 % 0 % 1012,9 hPa 0,0 l/m 0,8 km/h (0 Bft) 0 min 4,1 km/h (1 Bft)
01.03.2010 20:18 12,9 C 4,7 C 0,0 UV-I 0,0 C 51 % 84 % 0 % 1012,9 hPa 0,0 l/m 0,8 km/h (0 Bft) 0 min 0,0 km/h (0 Bft)
01.03.2010 20:20 12,9 C 4,7 C 0,0 UV-I 0,0 C 51 % 84 % 0 % 1012,9 hPa 0,0 l/m 0,4 km/h (0 Bft) 0 min 0,0 km/h (0 Bft)
01.03.2010 20:22 13,0 C 4,7 C 0,0 UV-I 0,0 C 51 % 84 % 0 % 1012,9 hPa 0,0 l/m 0,8 km/h (0 Bft) 0 min 0,0 km/h (0 Bft)
01.03.2010 20:24 12,9 C 4,6 C 0,0 UV-I 0,0 C 51 % 84 % 0 % 1012,9 hPa 0,0 l/m 0,8 km/h (0 Bft) 0 min 0,0 km/h (0 Bft)
01.03.2010 20:26 12,9 C 4,5 C 0,0 UV-I 0,0 C 51 % 84 % 0 % 1012,9 hPa 0,0 l/m 0,4 km/h (0 Bft) 0 min 0,0 km/h (0 Bft)
01.03.2010 20:28 13,0 C 4,5 C 0,0 UV-I 0,0 C 51 % 84 % 0 % 1012,9 hPa 0,0 l/m 0,4 km/h (0 Bft) 0 min 0,0 km/h (0 Bft)
01.03.2010 20:30 13,0 C 4,4 C 0,0 UV-I 0,0 C 51 % 84 % 0 % 1012,9 hPa 0,0 l/m 0,4 km/h (0 Bft) 0 min 0,0 km/h (0 Bft)
01.03.2010 20:32 13,0 C 4,4 C 0,0 UV-I 0,0 C 51 % 84 % 0 % 1013,0 hPa 0,0 l/m 0,0 km/h (0 Bft) 0 min 0,0 km/h (0 Bft)
01.03.2010 20:34 13,0 C 4,4 C 0,0 UV-I 0,0 C 51 % 84 % 0 % 1013,0 hPa 0,0 l/m 0,0 km/h (0 Bft) 0 min 0,0 km/h (0 Bft)
01.03.2010 20:36 13,0 C 4,4 C 0,0 UV-I 0,0 C 51 % 84 % 0 % 1013,0 hPa 0,0 l/m 0,0 km/h (0 Bft) 0 min 0,0 km/h (0 Bft)
01.03.2010 20:38 13,0 C 4,3 C 0,0 UV-I 0,0 C 51 % 84 % 0 % 1013,0 hPa 0,0 l/m 0,0 km/h (0 Bft) 0 min 0,0 km/h (0 Bft)
01.03.2010 20:40 13,0 C 4,3 C 0,0 UV-I 0,0 C 51 % 84 % 0 % 1013,0 hPa 0,0 l/m 0,0 km/h (0 Bft) 0 min 0,0 km/h (0 Bft)
01.03.2010 20:42 13,0 C 4,3 C 0,0 UV-I 0,0 C 51 % 85 % 0 % 1013,0 hPa 0,0 l/m 0,0 km/h (0 Bft) 0 min 0,0 km/h (0 Bft)
01.03.2010 20:44 13,0 C 4,2 C 0,0 UV-I 0,0 C 51 % 85 % 0 % 1013,0 hPa 0,0 l/m 0,0 km/h (0 Bft) 0 min 0,0 km/h (0 Bft)
01.03.2010 20:46 13,0 C 4,1 C 0,0 UV-I 0,0 C 51 % 85 % 0 % 1013,0 hPa 0,0 l/m 0,0 km/h (0 Bft) 0 min 0,0 km/h (0 Bft)
01.03.2010 20:48 13,0 C 4,1 C 0,0 UV-I 0,0 C 51 % 85 % 0 % 1013,0 hPa 0,0 l/m 0,0 km/h (0 Bft) 0 min 0,0 km/h (0 Bft)
01.03.2010 20:50 13,0 C 4,0 C 0,0 UV-I 0,0 C 51 % 85 % 0 % 1013,0 hPa 0,0 l/m 0,0 km/h (0 Bft) 0 min 0,0 km/h (0 Bft)
01.03.2010 20:52 13,0 C 4,1 C 0,0 UV-I 0,0 C 51 % 85 % 0 % 1013,3 hPa 0,0 l/m 0,0 km/h (0 Bft) 0 min 0,0 km/h (0 Bft)
01.03.2010 20:54 13,0 C 4,0 C 0,0 UV-I 0,0 C 51 % 85 % 0 % 1013,3 hPa 0,0 l/m 0,0 km/h (0 Bft) 0 min 0,0 km/h (0 Bft)
01.03.2010 20:56 13,0 C 3,9 C 0,0 UV-I 0,0 C 51 % 85 % 0 % 1013,3 hPa 0,0 l/m 0,0 km/h (0 Bft) 0 min 0,0 km/h (0 Bft)
01.03.2010 20:58 13,0 C 3,9 C 0,0 UV-I 0,0 C 51 % 85 % 0 % 1013,3 hPa 0,0 l/m 0,0 km/h (0 Bft) 0 min 0,0 km/h (0 Bft)
01.03.2010 21:00 13,0 C 3,8 C 0,0 UV-I 0,0 C 51 % 85 % 0 % 1013,3 hPa 0,0 l/m 0,0 km/h (0 Bft) 0 min 0,0 km/h (0 Bft)
01.03.2010 21:02 12,8 C 3,9 C 0,0 UV-I 0,0 C 51 % 85 % 0 % 1013,3 hPa 0,0 l/m 0,0 km/h (0 Bft) 0 min 0,0 km/h (0 Bft)
01.03.2010 21:04 13,0 C 3,7 C 0,0 UV-I 0,0 C 51 % 85 % 0 % 1013,3 hPa 0,0 l/m 0,0 km/h (0 Bft) 0 min 0,0 km/h (0 Bft)
01.03.2010 21:06 12,8 C 3,7 C 0,0 UV-I 0,0 C 51 % 85 % 0 % 1013,3 hPa 0,0 l/m 0,0 km/h (0 Bft) 0 min 0,0 km/h (0 Bft)
01.03.2010 21:08 13,0 C 3,7 C 0,0 UV-I 0,0 C 51 % 85 % 0 % 1013,3 hPa 0,0 l/m 0,0 km/h (0 Bft) 0 min 0,0 km/h (0 Bft)
01.03.2010 21:10 13,0 C 3,6 C 0,0 UV-I 0,0 C 51 % 85 % 0 % 1013,3 hPa 0,0 l/m 0,0 km/h (0 Bft) 0 min 0,0 km/h (0 Bft)
01.03.2010 21:12 12,8 C 3,5 C 0,0 UV-I 0,0 C 51 % 86 % 0 % 1013,4 hPa 0,0 l/m 0,0 km/h (0 Bft) 0 min 0,0 km/h (0 Bft)
01.03.2010 21:14 12,8 C 3,5 C 0,0 UV-I 0,0 C 51 % 86 % 0 % 1013,4 hPa 0,0 l/m 0,0 km/h (0 Bft) 0 min 0,0 km/h (0 Bft)
01.03.2010 21:16 12,8 C 3,4 C 0,0 UV-I 0,0 C 51 % 86 % 0 % 1013,4 hPa 0,0 l/m 0,0 km/h (0 Bft) 0 min 0,0 km/h (0 Bft)
01.03.2010 21:18 12,8 C 3,5 C 0,0 UV-I 0,0 C 51 % 86 % 0 % 1013,4 hPa 0,0 l/m 0,0 km/h (0 Bft) 0 min 0,0 km/h (0 Bft)
01.03.2010 21:20 12,8 C 3,4 C 0,0 UV-I 0,0 C 51 % 86 % 0 % 1013,4 hPa 0,0 l/m 0,0 km/h (0 Bft) 0 min 0,0 km/h (0 Bft)
01.03.2010 21:22 12,8 C 3,3 C 0,0 UV-I 0,0 C 51 % 86 % 0 % 1013,4 hPa 0,0 l/m 0,0 km/h (0 Bft) 0 min 0,0 km/h (0 Bft)
01.03.2010 21:24 12,8 C 3,2 C 0,0 UV-I 0,0 C 51 % 86 % 0 % 1013,4 hPa 0,0 l/m 0,0 km/h (0 Bft) 0 min 0,0 km/h (0 Bft)
01.03.2010 21:26 12,8 C 3,2 C 0,0 UV-I 0,0 C 51 % 86 % 0 % 1013,4 hPa 0,0 l/m 0,0 km/h (0 Bft) 0 min 0,0 km/h (0 Bft)
01.03.2010 21:28 12,8 C 3,2 C 0,0 UV-I 0,0 C 51 % 86 % 0 % 1013,4 hPa 0,0 l/m 0,0 km/h (0 Bft) 0 min 0,0 km/h (0 Bft)
01.03.2010 21:30 12,8 C 3,1 C 0,0 UV-I 0,0 C 51 % 86 % 0 % 1013,4 hPa 0,0 l/m 0,0 km/h (0 Bft) 0 min 0,0 km/h (0 Bft)
01.03.2010 21:32 12,8 C 3,1 C 0,0 UV-I 0,0 C 51 % 86 % 0 % 1013,6 hPa 0,0 l/m 0,0 km/h (0 Bft) 0 min 0,0 km/h (0 Bft)
01.03.2010 21:34 12,8 C 3,1 C 0,0 UV-I 0,0 C 51 % 87 % 0 % 1013,6 hPa 0,0 l/m 0,0 km/h (0 Bft) 0 min 0,0 km/h (0 Bft)
01.03.2010 21:36 12,8 C 3,0 C 0,0 UV-I 0,0 C 51 % 87 % 0 % 1013,6 hPa 0,0 l/m 0,0 km/h (0 Bft) 0 min 0,0 km/h (0 Bft)
01.03.2010 21:38 12,9 C 2,9 C 0,0 UV-I 0,0 C 51 % 87 % 0 % 1013,6 hPa 0,0 l/m 0,0 km/h (0 Bft) 0 min 0,0 km/h (0 Bft)
01.03.2010 21:40 12,9 C 2,9 C 0,0 UV-I 0,0 C 51 % 87 % 0 % 1013,6 hPa 0,0 l/m 0,0 km/h (0 Bft) 0 min 0,0 km/h (0 Bft)
01.03.2010 21:42 12,9 C 2,8 C 0,0 UV-I 0,0 C 51 % 87 % 0 % 1013,6 hPa 0,0 l/m 0,0 km/h (0 Bft) 0 min 0,0 km/h (0 Bft)
01.03.2010 21:44 12,8 C 2,9 C 0,0 UV-I 0,0 C 51 % 87 % 0 % 1013,6 hPa 0,0 l/m 0,0 km/h (0 Bft) 0 min 0,0 km/h (0 Bft)
01.03.2010 21:46 12,9 C 2,8 C 0,0 UV-I 0,0 C 51 % 87 % 0 % 1013,6 hPa 0,0 l/m 0,0 km/h (0 Bft) 0 min 0,0 km/h (0 Bft)
01.03.2010 21:48 12,9 C 2,8 C 0,0 UV-I 0,0 C 51 % 87 % 0 % 1013,6 hPa 0,0 l/m 0,0 km/h (0 Bft) 0 min 0,0 km/h (0 Bft)
01.03.2010 21:50 12,8 C 2,8 C 0,0 UV-I 0,0 C 51 % 87 % 0 % 1013,6 hPa 0,0 l/m 0,0 km/h (0 Bft) 0 min 0,0 km/h (0 Bft)
01.03.2010 21:52 12,9 C 2,7 C 0,0 UV-I 0,0 C 51 % 87 % 0 % 1013,7 hPa 0,0 l/m 0,0 km/h (0 Bft) 0 min 0,0 km/h (0 Bft)
01.03.2010 21:54 12,8 C 2,7 C 0,0 UV-I 0,0 C 51 % 87 % 0 % 1013,7 hPa 0,0 l/m 0,0 km/h (0 Bft) 0 min 0,0 km/h (0 Bft)
01.03.2010 21:56 12,8 C 2,7 C 0,0 UV-I 0,0 C 51 % 88 % 0 % 1013,7 hPa 0,0 l/m 0,0 km/h (0 Bft) 0 min 0,0 km/h (0 Bft)
01.03.2010 21:58 12,8 C 2,7 C 0,0 UV-I 0,0 C 51 % 88 % 0 % 1013,7 hPa 0,0 l/m 0,0 km/h (0 Bft) 0 min 0,0 km/h (0 Bft)
01.03.2010 22:00 12,8 C 2,5 C 0,0 UV-I 0,0 C 51 % 88 % 0 % 1013,7 hPa 0,0 l/m 0,0 km/h (0 Bft) 0 min 0,0 km/h (0 Bft)
01.03.2010 22:02 12,8 C 2,5 C 0,0 UV-I 0,0 C 51 % 88 % 0 % 1013,7 hPa 0,0 l/m 0,0 km/h (0 Bft) 0 min 0,0 km/h (0 Bft)
01.03.2010 22:04 12,8 C 2,5 C 0,0 UV-I 0,0 C 51 % 88 % 0 % 1013,7 hPa 0,0 l/m 0,0 km/h (0 Bft) 0 min 0,0 km/h (0 Bft)
01.03.2010 22:06 12,8 C 2,4 C 0,0 UV-I 0,0 C 51 % 88 % 0 % 1013,7 hPa 0,0 l/m 0,0 km/h (0 Bft) 0 min 0,0 km/h (0 Bft)
01.03.2010 22:08 12,8 C 2,4 C 0,0 UV-I 0,0 C 51 % 88 % 0 % 1013,7 hPa 0,0 l/m 0,0 km/h (0 Bft) 0 min 0,0 km/h (0 Bft)
01.03.2010 22:10 12,8 C 2,4 C 0,0 UV-I 0,0 C 51 % 88 % 0 % 1013,7 hPa 0,0 l/m 0,0 km/h (0 Bft) 0 min 0,0 km/h (0 Bft)
01.03.2010 22:12 12,8 C 2,3 C 0,0 UV-I 0,0 C 51 % 88 % 0 % 1013,9 hPa 0,0 l/m 0,0 km/h (0 Bft) 0 min 0,0 km/h (0 Bft)
01.03.2010 22:14 12,8 C 2,3 C 0,0 UV-I 0,0 C 51 % 88 % 0 % 1013,9 hPa 0,0 l/m 0,0 km/h (0 Bft) 0 min 0,0 km/h (0 Bft)
01.03.2010 22:16 12,8 C 2,2 C 0,0 UV-I 0,0 C 51 % 88 % 0 % 1013,9 hPa 0,0 l/m 0,0 km/h (0 Bft) 0 min 0,0 km/h (0 Bft)
01.03.2010 22:18 12,8 C 2,3 C 0,0 UV-I 0,0 C 51 % 88 % 0 % 1013,9 hPa 0,0 l/m 0,0 km/h (0 Bft) 0 min 0,0 km/h (0 Bft)
01.03.2010 22:20 12,8 C 2,2 C 0,0 UV-I 0,0 C 51 % 88 % 0 % 1013,9 hPa 0,0 l/m 0,0 km/h (0 Bft) 0 min 0,0 km/h (0 Bft)
01.03.2010 22:22 12,8 C 2,1 C 0,0 UV-I 0,0 C 51 % 88 % 0 % 1013,9 hPa 0,0 l/m 0,0 km/h (0 Bft) 0 min 0,0 km/h (0 Bft)
01.03.2010 22:24 12,8 C 2,1 C 0,0 UV-I 0,0 C 51 % 88 % 0 % 1013,9 hPa 0,0 l/m 0,0 km/h (0 Bft) 0 min 0,0 km/h (0 Bft)
01.03.2010 22:26 12,8 C 2,0 C 0,0 UV-I 0,0 C 51 % 88 % 0 % 1013,9 hPa 0,0 l/m 0,0 km/h (0 Bft) 0 min 0,0 km/h (0 Bft)
01.03.2010 22:28 12,8 C 2,1 C 0,0 UV-I 0,0 C 51 % 88 % 0 % 1013,9 hPa 0,0 l/m 0,0 km/h (0 Bft) 0 min 0,0 km/h (0 Bft)
01.03.2010 22:30 12,8 C 2,0 C 0,0 UV-I 0,0 C 51 % 88 % 0 % 1013,9 hPa 0,0 l/m 0,0 km/h (0 Bft) 0 min 0,0 km/h (0 Bft)
01.03.2010 22:32 12,8 C 1,9 C 0,0 UV-I 0,0 C 51 % 88 % 0 % 1014,1 hPa 0,0 l/m 0,0 km/h (0 Bft) 0 min 0,0 km/h (0 Bft)
01.03.2010 22:34 12,8 C 1,9 C 0,0 UV-I 0,0 C 51 % 88 % 0 % 1014,1 hPa 0,0 l/m 0,0 km/h (0 Bft) 0 min 0,0 km/h (0 Bft)
01.03.2010 22:36 12,8 C 1,9 C 0,0 UV-I 0,0 C 51 % 88 % 0 % 1014,1 hPa 0,0 l/m 0,0 km/h (0 Bft) 0 min 0,0 km/h (0 Bft)
01.03.2010 22:38 12,8 C 1,9 C 0,0 UV-I 0,0 C 51 % 88 % 0 % 1014,1 hPa 0,0 l/m 0,0 km/h (0 Bft) 0 min 0,0 km/h (0 Bft)
01.03.2010 22:40 12,8 C 1,9 C 0,0 UV-I 0,0 C 51 % 88 % 0 % 1014,1 hPa 0,0 l/m 0,0 km/h (0 Bft) 0 min 0,0 km/h (0 Bft)
01.03.2010 22:42 12,8 C 1,8 C 0,0 UV-I 0,0 C 51 % 88 % 0 % 1014,1 hPa 0,0 l/m 0,0 km/h (0 Bft) 0 min 0,0 km/h (0 Bft)
01.03.2010 22:44 12,8 C 1,7 C 0,0 UV-I 0,0 C 51 % 88 % 0 % 1014,1 hPa 0,0 l/m 0,0 km/h (0 Bft) 0 min 0,0 km/h (0 Bft)
01.03.2010 22:46 12,8 C 1,7 C 0,0 UV-I 0,0 C 51 % 88 % 0 % 1014,1 hPa 0,0 l/m 0,0 km/h (0 Bft) 0 min 0,0 km/h (0 Bft)
01.03.2010 22:48 12,8 C 1,7 C 0,0 UV-I 0,0 C 51 % 88 % 0 % 1014,1 hPa 0,0 l/m 0,0 km/h (0 Bft) 0 min 0,0 km/h (0 Bft)
01.03.2010 22:50 12,8 C 1,6 C 0,0 UV-I 0,0 C 51 % 88 % 0 % 1014,1 hPa 0,0 l/m 0,0 km/h (0 Bft) 0 min 0,0 km/h (0 Bft)
01.03.2010 22:52 12,8 C 1,6 C 0,0 UV-I 0,0 C 51 % 88 % 0 % 1014,2 hPa 0,0 l/m 0,0 km/h (0 Bft) 0 min 0,0 km/h (0 Bft)
01.03.2010 22:54 12,8 C 1,7 C 0,0 UV-I 0,0 C 51 % 88 % 0 % 1014,2 hPa 0,0 l/m 0,0 km/h (0 Bft) 0 min 0,0 km/h (0 Bft)
01.03.2010 22:56 12,8 C 1,6 C 0,0 UV-I 0,0 C 51 % 89 % 0 % 1014,2 hPa 0,0 l/m 0,0 km/h (0 Bft) 0 min 0,0 km/h (0 Bft)
01.03.2010 22:58 12,8 C 1,6 C 0,0 UV-I 0,0 C 51 % 89 % 0 % 1014,2 hPa 0,0 l/m 0,0 km/h (0 Bft) 0 min 0,0 km/h (0 Bft)
01.03.2010 23:00 12,8 C 1,5 C 0,0 UV-I 0,0 C 51 % 89 % 0 % 1014,2 hPa 0,0 l/m 0,0 km/h (0 Bft) 0 min 0,0 km/h (0 Bft)
01.03.2010 23:02 12,8 C 1,5 C 0,0 UV-I 0,0 C 51 % 89 % 0 % 1014,2 hPa 0,0 l/m 0,0 km/h (0 Bft) 0 min 0,0 km/h (0 Bft)
01.03.2010 23:04 12,8 C 1,5 C 0,0 UV-I 0,0 C 51 % 89 % 0 % 1014,2 hPa 0,0 l/m 0,0 km/h (0 Bft) 0 min 0,0 km/h (0 Bft)
01.03.2010 23:06 12,8 C 1,5 C 0,0 UV-I 0,0 C 51 % 89 % 0 % 1014,2 hPa 0,0 l/m 0,0 km/h (0 Bft) 0 min 0,0 km/h (0 Bft)
01.03.2010 23:08 12,8 C 1,4 C 0,0 UV-I 0,0 C 51 % 89 % 0 % 1014,2 hPa 0,0 l/m 0,0 km/h (0 Bft) 0 min 0,0 km/h (0 Bft)
01.03.2010 23:10 12,6 C 1,5 C 0,0 UV-I 0,0 C 51 % 89 % 0 % 1014,2 hPa 0,0 l/m 0,0 km/h (0 Bft) 0 min 0,0 km/h (0 Bft)
01.03.2010 23:12 12,8 C 1,5 C 0,0 UV-I 0,0 C 51 % 89 % 0 % 1014,8 hPa 0,0 l/m 0,0 km/h (0 Bft) 0 min 0,0 km/h (0 Bft)
01.03.2010 23:14 12,8 C 1,4 C 0,0 UV-I 0,0 C 51 % 89 % 0 % 1014,8 hPa 0,0 l/m 0,0 km/h (0 Bft) 0 min 0,0 km/h (0 Bft)
01.03.2010 23:16 12,6 C 1,3 C 0,0 UV-I 0,0 C 51 % 89 % 0 % 1014,8 hPa 0,0 l/m 0,0 km/h (0 Bft) 0 min 0,0 km/h (0 Bft)
01.03.2010 23:18 12,8 C 1,3 C 0,0 UV-I 0,0 C 51 % 89 % 0 % 1014,8 hPa 0,0 l/m 0,0 km/h (0 Bft) 0 min 0,0 km/h (0 Bft)
01.03.2010 23:20 12,6 C 1,2 C 0,0 UV-I 0,0 C 51 % 89 % 0 % 1014,8 hPa 0,0 l/m 0,0 km/h (0 Bft) 0 min 0,0 km/h (0 Bft)
01.03.2010 23:22 12,7 C 1,2 C 0,0 UV-I 0,0 C 51 % 89 % 0 % 1014,8 hPa 0,0 l/m 0,0 km/h (0 Bft) 0 min 0,0 km/h (0 Bft)
01.03.2010 23:24 12,6 C 1,3 C 0,0 UV-I 0,0 C 51 % 89 % 0 % 1014,8 hPa 0,0 l/m 0,0 km/h (0 Bft) 0 min 0,0 km/h (0 Bft)
01.03.2010 23:26 12,6 C 1,2 C 0,0 UV-I 0,0 C 51 % 89 % 0 % 1014,8 hPa 0,0 l/m 0,0 km/h (0 Bft) 0 min 0,0 km/h (0 Bft)
01.03.2010 23:28 12,7 C 1,1 C 0,0 UV-I 0,0 C 51 % 89 % 0 % 1014,8 hPa 0,0 l/m 0,0 km/h (0 Bft) 0 min 0,0 km/h (0 Bft)
01.03.2010 23:30 12,6 C 1,1 C 0,0 UV-I 0,0 C 51 % 89 % 0 % 1014,8 hPa 0,0 l/m 0,0 km/h (0 Bft) 0 min 0,0 km/h (0 Bft)
01.03.2010 23:32 12,6 C 1,0 C 0,0 UV-I 0,0 C 51 % 90 % 0 % 1014,4 hPa 0,0 l/m 0,0 km/h (0 Bft) 0 min 0,0 km/h (0 Bft)
01.03.2010 23:34 12,7 C 1,1 C 0,0 UV-I 0,0 C 51 % 90 % 0 % 1014,4 hPa 0,0 l/m 0,0 km/h (0 Bft) 0 min 0,0 km/h (0 Bft)
01.03.2010 23:36 12,7 C 1,0 C 0,0 UV-I 0,0 C 51 % 90 % 0 % 1014,4 hPa 0,0 l/m 0,0 km/h (0 Bft) 0 min 0,0 km/h (0 Bft)
01.03.2010 23:38 12,7 C 1,0 C 0,0 UV-I 0,0 C 51 % 90 % 0 % 1014,4 hPa 0,0 l/m 0,0 km/h (0 Bft) 0 min 0,0 km/h (0 Bft)
01.03.2010 23:40 12,7 C 0,9 C 0,0 UV-I 0,0 C 51 % 90 % 0 % 1014,4 hPa 0,0 l/m 0,0 km/h (0 Bft) 0 min 0,0 km/h (0 Bft)
01.03.2010 23:42 12,7 C 0,9 C 0,0 UV-I 0,0 C 50 % 90 % 0 % 1014,4 hPa 0,0 l/m 0,0 km/h (0 Bft) 0 min 0,0 km/h (0 Bft)
01.03.2010 23:44 12,7 C 0,8 C 0,0 UV-I 0,0 C 51 % 89 % 0 % 1014,4 hPa 0,0 l/m 0,0 km/h (0 Bft) 0 min 0,0 km/h (0 Bft)
01.03.2010 23:46 12,7 C 0,9 C 0,0 UV-I 0,0 C 51 % 90 % 0 % 1014,4 hPa 0,0 l/m 0,0 km/h (0 Bft) 0 min 0,0 km/h (0 Bft)
01.03.2010 23:48 12,7 C 0,8 C 0,0 UV-I 0,0 C 51 % 89 % 0 % 1014,4 hPa 0,0 l/m 0,0 km/h (0 Bft) 0 min 0,0 km/h (0 Bft)
01.03.2010 23:50 12,7 C 0,8 C 0,0 UV-I 0,0 C 50 % 89 % 0 % 1014,4 hPa 0,0 l/m 0,0 km/h (0 Bft) 0 min 0,0 km/h (0 Bft)
01.03.2010 23:52 12,7 C 0,8 C 0,0 UV-I 0,0 C 51 % 89 % 0 % 1014,4 hPa 0,0 l/m 0,0 km/h (0 Bft) 0 min 0,0 km/h (0 Bft)
01.03.2010 23:54 12,7 C 0,8 C 0,0 UV-I 0,0 C 51 % 90 % 0 % 1014,4 hPa 0,0 l/m 0,0 km/h (0 Bft) 0 min 0,0 km/h (0 Bft)
01.03.2010 23:56 12,7 C 0,7 C 0,0 UV-I 0,0 C 50 % 90 % 0 % 1014,4 hPa 0,0 l/m 0,0 km/h (0 Bft) 0 min 0,0 km/h (0 Bft)
01.03.2010 23:58 12,7 C 0,7 C 0,0 UV-I 0,0 C 50 % 90 % 0 % 1014,4 hPa 0,0 l/m 0,0 km/h (0 Bft) 0 min 0,0 km/h (0 Bft)
_ Min-Zeit 06:22 23:56 00:00 00:00 16:24 16:20 00:00 00:00 - 20:00 - 08:20
Minimum _ 12,3 C 0,7 C 0,0 UV-I 0,0 C 50 % 75 % 0 % 995,9 hPa - 0,0 km/h (0 Bft) - 0,0 km/h (0 Bft)
_ Max-Zeit 16:34 16:28 14:14 16:30 00:02 06:22 16:30 23:12 02:28 01:12 14:14 01:48
Maximum _ 13,9 C 7,3 C 4,3 UV-I 3,3 C 56 % 91 % 94 % 1014,8 hPa 0,1 l/m 17,7 km/h
O-SO (3 Bft)
2 min 29,4 km/h
S-SO (5 Bft)
Durchschnitt _ 12,8 C 4,7 C 0,2 UV-I 0,2 C 53 % 86 % 4 % 1006,9 hPa #1,0 l/m 7,5 km/h (2 Bft) #20 min. 6,6 km/h (2 Bft)
© 2012 W. Hausmann